GFSNGP_850_dewp_000.txt.gz
Dewpoint
1 1 -1 -3 -3 1 -0 -1 0 -1 -1 -2 1 1 1 1 0 0 0 -2 -4 -6 -7 -5 -5 -9 -10 -11 -11 -11 -11 -11 -10 -10 -11 -14 -11 -11 -11 -7 -6 -5 -11 -14
3 2 1 -0 -2 -1 -0 -1 1 1 0 1 1 1 1 1 1 0 -0 -3 -5 -6 -6 -8 -10 -11 -11 -12 -12 -11 -11 -10 -9 -9 -13 -11 -10 -9 -8 -5 -6 -7 -12 -10
-5 1 -1 -3 -2 -1 -2 -2 -1 2 -0 2 2 1 1 1 1 1 -0 -3 -6 -7 -8 -9 -10 -12 -12 -12 -11 -11 -10 -10 -9 -11 -10 -10 -9 -8 -6 -5 -6 -7 -8 -7
-1 -3 -5 -4 -4 -2 -1 1 1 1 1 1 1 2 1 1 1 0 -1 -4 -7 -8 -8 -10 -12 -12 -12 -12 -11 -11 -10 -9 -11 -9 -8 -10 -10 -8 -6 -6 -7 -7 -7 -12
-1 -1 -4 -6 2 2 1 -0 2 1 1 1 2 2 1 1 0 -0 -2 -5 -7 -8 -10 -12 -13 -13 -12 -11 -11 -10 -9 -12 -9 -7 -7 -9 -11 -8 -8 -7 -7 -8 -11 -9
-3 -5 -6 -5 -3 -1 -2 2 2 1 1 1 1 1 1 0 -0 -0 -4 -6 -8 -10 -11 -13 -12 -11 -11 -12 -10 -13 -12 -9 -8 -7 -7 -8 -10 -7 -9 -9 -10 -10 -9 -10
-3 -4 -2 -5 -1 -1 2 1 2 1 1 1 1 1 -0 -0 -0 -1 -4 -4 -10 -10 -12 -11 -10 -13 -13 -14 -16 -15 -14 -13 -9 -6 -6 -8 -10 -9 -9 -10 -11 -10 -11 -11
-1 -2 -2 -4 -1 1 0 -3 -2 0 0 1 0 1 -0 -1 -1 -2 -2 -9 -9 -11 -9 -10 -15 -17 -18 -17 -16 -15 -14 -14 -11 -8 -6 -7 -10 -11 -13 -10 -10 -11 -10 -9
-1 -0 -4 -3 -1 -1 -1 -3 -2 -1 -1 0 1 1 0 -2 -2 -3 -8 -9 -10 -9 -12 -18 -19 -18 -16 -16 -15 -15 -14 -13 -10 -8 -6 -6 -11 -12 -12 -9 -10 -9 -8 -8
0 -1 -1 -2 -3 -2 -1 -1 -1 -0 -0 1 2 2 1 -1 -7 -8 -9 -4 -10 -15 -19 -20 -18 -17 -15 -15 -15 -15 -13 -10 -10 -7 -6 -5 -10 -12 -11 -9 -8 -8 -8 -9
1 1 -0 -1 -1 -1 0 1 1 1 2 2 3 2 -0 -5 -4 -6 -1 -12 -17 -20 -19 -18 -16 -15 -15 -15 -15 -14 -11 -9 -8 -6 -6 -6 -7 -10 -9 -8 -9 -10 -9 -10
1 -3 -2 -3 -2 -1 -0 1 1 3 3 3 2 0 -6 -3 -4 -3 -14 -17 -19 -19 -17 -16 -15 -14 -14 -15 -13 -11 -10 -6 -6 -6 -6 -6 -7 -7 -7 -8 -10 -10 -10 -10
-2 -2 -0 1 2 2 2 1 2 4 3 2 0 -2 -2 -3 -4 -14 -17 -19 -18 -16 -15 -15 -14 -14 -14 -13 -9 -8 -6 -7 -6 -6 -5 -6 -6 -7 -7 -8 -10 -10 -11 -10
0 2 2 1 2 2 2 3 4 3 2 -2 -5 -3 -1 -5 -13 -16 -18 -17 -16 -15 -14 -14 -13 -14 -13 -9 -9 -6 -6 -6 -7 -6 -6 -6 -6 -6 -7 -8 -9 -10 -10 -10
3 2 3 3 3 3 4 4 2 -5 -5 -2 -1 -0 -3 -12 -15 -17 -15 -15 -15 -14 -13 -12 -13 -12 -10 -8 -7 -7 -6 -6 -6 -7 -7 -7 -7 -7 -8 -8 -8 -9 -10 -11
2 2 3 4 3 1 -0 -4 -4 -2 -1 -1 -1 -7 -12 -15 -15 -14 -14 -16 -15 -13 -11 -11 -11 -10 -9 -8 -7 -7 -7 -6 -6 -7 -8 -8 -8 -8 -8 -8 -9 -9 -10 -11
3 2 0 -2 -3 -4 -2 -1 -1 -1 -1 -4 -8 -12 -15 -16 -13 -13 -15 -14 -13 -11 -9 -9 -9 -8 -7 -7 -7 -6 -7 -7 -7 -6 -8 -8 -8 -8 -8 -10 -10 -10 -10 -10
1 -0 -1 -2 -1 -0 -1 -1 -3 -5 -7 -10 -14 -17 -16 -13 -12 -14 -13 -12 -11 -9 -8 -8 -8 -7 -7 -7 -7 -7 -7 -7 -7 -7 -7 -7 -8 -9 -8 -9 -9 -10 -10 -10
1 0 0 -0 -1 -2 -2 -4 -8 -12 -15 -18 -17 -15 -12 -11 -12 -10 -11 -11 -10 -9 -8 -8 -8 -8 -8 -6 -7 -7 -7 -7 -7 -7 -7 -7 -8 -12 -11 -10 -10 -11 -10 -10
-1 -4 -4 -8 -11 -8 -8 -8 -15 -18 -17 -16 -14 -13 -12 -10 -10 -11 -10 -9 -8 -7 -6 -7 -7 -7 -7 -7 -7 -7 -7 -8 -8 -7 -7 -7 -8 -8 -8 -8 -9 -9 -10 -11
-7 -7 -8 -11 -14 -16 -16 -16 -15 -15 -14 -12 -10 -8 -7 -8 -8 -7 -7 -8 -10 -6 -5 -5 -6 -7 -7 -7 -7 -7 -7 -8 -8 -8 -8 -7 -7 -8 -7 -7 -8 -8 -8 -9
-6 -5 -6 -9 -11 -11 -11 -10 -9 -8 -8 -8 -8 -9 -9 -11 -10 -10 -10 -10 -9 -6 -5 -5 -6 -7 -7 -7 -7 -8 -8 -8 -8 -8 -7 -7 -7 -7 -7 -7 -7 -7 -7 -8
-5 -7 -8 -8 -8 -7 -8 -6 -6 -6 -7 -8 -10 -10 -10 -10 -9 -8 -10 -11 -11 -8 -5 -6 -6 -7 -7 -8 -8 -8 -8 -8 -8 -7 -7 -8 -7 -8 -8 -8 -8 -8 -8 -7
-7 -6 -6 -6 -6 -6 -9 -9 -10 -9 -9 -10 -10 -9 -7 -6 -7 -7 -8 -9 -7 -6 -6 -6 -7 -7 -8 -9 -8 -7 -7 -8 -8 -8 -8 -8 -8 -8 -8 -8 -8 -8 -8 -8
-6 -6 -6 -7 -7 -7 -7 -7 -7 -7 -8 -9 -8 -8 -7 -5 -6 -7 -8 -8 -8 -6 -6 -6 -6 -7 -8 -8 -8 -9 -9 -8 -9 -9 -10 -10 -10 -11 -13 -13 -12 -12 -10 -9
-6 -7 -6 -5 -5 -6 -7 -8 -10 -11 -11 -12 -11 -8 -11 -10 -8 -8 -8 -8 -7 -8 -6 -7 -7 -8 -8 -9 -9 -9 -9 -10 -11 -12 -13 -13 -14 -14 -14 -14 -14 -14 -13 -12
-6 -7 -8 -8 -10 -12 -13 -13 -13 -14 -13 -12 -9 -9 -9 -9 -8 -8 -7 -7 -7 -7 -7 -7 -8 -8 -9 -9 -9 -10 -11 -11 -12 -13 -14 -15 -16 -17 -18 -17 -15 -13 -12 -12

GFSNGP_850_dewp_003.txt.gz
Dewpoint
1 1 -0 -3 -0 -0 -2 -1 2 -0 -1 -3 -1 0 0 1 0 -1 -1 -1 -0 -1 -3 -7 -3 -7 -10 -11 -12 -12 -11 -11 -10 -9 -9 -12 -14 -13 -10 -9 -6 -6 -5 -12
3 1 1 0 -2 -1 0 -0 -2 -1 0 -3 -0 0 1 0 -0 -1 -1 -0 -0 -2 -5 -7 -7 -9 -11 -12 -12 -11 -11 -11 -10 -9 -9 -13 -12 -12 -10 -8 -5 -6 -7 -9
-0 -0 -2 0 -0 -1 -0 -1 -0 2 -1 1 1 1 1 1 0 -0 -0 0 -0 -2 -5 -7 -8 -10 -12 -12 -12 -11 -11 -11 -10 -9 -11 -10 -10 -11 -10 -7 -6 -6 -7 -7
2 -1 0 -4 -2 -3 -2 -2 -2 -1 -0 0 1 1 0 -0 -0 0 0 0 -1 -3 -5 -7 -8 -12 -12 -12 -12 -11 -11 -11 -9 -11 -10 -8 -9 -10 -10 -8 -8 -7 -7 -7
4 1 -3 -6 -3 1 2 -1 -0 -0 -0 1 1 1 1 0 0 0 0 0 -1 -4 -7 -8 -10 -13 -14 -13 -11 -12 -12 -12 -13 -10 -9 -7 -8 -9 -11 -9 -9 -10 -10 -10
0 -0 -1 -4 -6 0 -2 2 -1 1 1 1 1 4 1 -1 0 1 1 -0 -3 -7 -8 -10 -12 -14 -13 -10 -12 -15 -16 -16 -14 -12 -10 -7 -7 -7 -11 -10 -10 -11 -11 -10
-1 3 0 -4 -2 -2 1 1 -1 0 0 1 2 1 -2 -1 -1 1 0 -2 -6 -6 -10 -12 -13 -10 -8 -13 -17 -17 -15 -15 -14 -13 -12 -8 -7 -7 -10 -10 -13 -12 -11 -11
-0 1 2 -5 -0 2 1 -2 -4 -1 -2 -0 -2 -1 -0 -1 -1 -0 -1 -4 -2 -6 -12 -11 -8 -9 -16 -18 -17 -16 -15 -16 -16 -15 -12 -10 -8 -6 -9 -13 -12 -10 -11 -10
1 2 -4 -4 -1 -2 -1 -1 -2 -2 -2 -1 -0 0 0 -0 -1 -2 -3 -3 -10 -11 -8 -8 -13 -17 -18 -17 -16 -15 -16 -17 -16 -14 -10 -9 -7 -6 -9 -11 -10 -10 -9 -8
1 -1 -2 -3 -2 -3 -3 -2 -2 -2 -1 -0 0 1 0 -1 -2 -4 -7 -9 -2 -1 -10 -15 -18 -18 -17 -16 -15 -15 -16 -15 -14 -11 -9 -7 -6 -6 -9 -10 -9 -8 -10 -11
1 0 -1 -3 -3 -3 -2 -1 -1 0 0 1 2 2 1 -1 -5 -8 -5 -1 -3 -13 -16 -18 -18 -17 -16 -15 -15 -15 -14 -12 -12 -7 -6 -6 -6 -6 -7 -9 -8 -9 -11 -11
4 -3 -2 -3 -2 0 1 1 1 2 2 3 3 2 0 -6 -8 -2 -0 -8 -14 -17 -17 -17 -17 -15 -15 -14 -14 -13 -11 -10 -6 -6 -6 -6 -6 -6 -7 -8 -7 -9 -11 -11
-2 -1 -1 -0 1 1 1 1 1 2 4 3 2 1 -6 -4 -1 -0 -6 -14 -16 -16 -16 -17 -16 -14 -14 -14 -13 -10 -10 -8 -7 -6 -6 -6 -5 -6 -7 -7 -7 -8 -10 -11
1 1 2 2 2 2 2 3 3 4 2 0 -6 -4 -1 -0 -1 -4 -8 -14 -15 -15 -15 -15 -13 -13 -14 -13 -11 -9 -8 -7 -7 -7 -7 -7 -6 -6 -6 -6 -6 -8 -9 -10
3 3 3 3 3 3 3 2 2 -2 -5 -5 -2 -1 -2 -3 -5 -10 -13 -14 -14 -15 -14 -12 -13 -13 -12 -11 -9 -9 -8 -7 -7 -7 -7 -7 -7 -7 -7 -7 -7 -7 -9 -9
3 3 3 2 1 -1 -2 -3 -3 -2 -1 -1 -2 -3 -5 -9 -11 -13 -13 -13 -13 -14 -10 -12 -13 -11 -10 -9 -8 -8 -7 -7 -7 -7 -7 -7 -7 -8 -9 -10 -10 -10 -11 -10
2 -1 -2 -3 -3 -4 -3 -1 -1 -1 -2 -2 -3 -3 -7 -11 -13 -13 -11 -11 -12 -12 -12 -11 -10 -9 -9 -8 -8 -7 -7 -7 -7 -6 -7 -6 -6 -7 -9 -10 -10 -9 -10 -11
-1 -1 -2 -2 -1 -1 -1 -1 -1 -3 -5 -7 -9 -13 -16 -15 -13 -10 -10 -10 -11 -13 -12 -9 -8 -8 -8 -8 -7 -7 -7 -7 -7 -7 -8 -7 -7 -7 -7 -8 -10 -9 -9 -10
0 -0 -1 -1 -2 -2 -3 -4 -5 -7 -11 -14 -15 -15 -13 -12 -11 -10 -10 -11 -12 -12 -11 -7 -7 -6 -6 -6 -6 -6 -7 -7 -7 -8 -8 -8 -7 -7 -7 -7 -10 -11 -9 -9
-4 -4 -5 -5 -4 -5 -6 -8 -11 -15 -15 -15 -14 -13 -13 -11 -10 -9 -8 -9 -9 -9 -7 -7 -6 -5 -5 -6 -6 -6 -7 -7 -8 -8 -9 -8 -8 -7 -7 -7 -7 -8 -8 -8
-7 -7 -9 -12 -13 -13 -12 -12 -12 -12 -11 -10 -10 -9 -8 -9 -9 -9 -9 -9 -12 -10 -10 -9 -6 -5 -5 -6 -6 -7 -7 -8 -8 -8 -8 -8 -7 -7 -7 -7 -7 -7 -7 -7
-5 -5 -7 -9 -8 -8 -7 -6 -6 -5 -5 -5 -6 -7 -8 -10 -9 -8 -8 -8 -8 -8 -9 -8 -7 -5 -6 -6 -7 -8 -8 -8 -8 -8 -8 -7 -7 -8 -8 -8 -8 -8 -8 -8
-6 -8 -6 -6 -5 -5 -6 -7 -7 -7 -7 -7 -7 -7 -7 -7 -6 -5 -6 -6 -6 -7 -8 -8 -6 -7 -6 -6 -6 -8 -10 -8 -7 -8 -8 -8 -8 -8 -8 -9 -9 -9 -9 -9
-6 -5 -4 -4 -4 -6 -8 -8 -7 -7 -7 -8 -11 -13 -14 -14 -16 -12 -12 -11 -9 -7 -7 -7 -7 -6 -6 -6 -7 -8 -7 -10 -9 -8 -9 -9 -9 -9 -10 -11 -12 -14 -15 -17
-4 -5 -5 -6 -6 -6 -6 -9 -12 -14 -15 -16 -16 -16 -15 -9 -9 -16 -14 -12 -10 -7 -6 -7 -7 -7 -6 -6 -7 -7 -8 -9 -9 -9 -9 -9 -11 -12 -14 -15 -17 -18 -19 -19
-5 -6 -5 -5 -8 -11 -13 -14 -15 -15 -16 -17 -17 -17 -17 -16 -14 -11 -10 -9 -9 -8 -7 -6 -7 -7 -6 -7 -7 -9 -9 -10 -10 -11 -11 -11 -13 -14 -15 -17 -18 -20 -20 -17
-6 -8 -10 -12 -14 -14 -15 -15 -16 -17 -17 -18 -19 -18 -17 -16 -15 -13 -12 -11 -9 -8 -8 -8 -8 -9 -8 -8 -9 -10 -11 -11 -12 -12 -12 -13 -15 -16 -18 -19 -19 -19 -19 -16

GFSNGP_850_dewp_006.txt.gz
Dewpoint
-1 -0 -2 -2 -2 -2 -3 -3 -1 -7 -5 -9 -6 -5 -3 -0 1 1 1 0 -0 -2 -3 -5 -6 -4 -5 -9 -10 -11 -11 -10 -8 -9 -8 -6 -6 -7 -7 -5 -4 -4 -5 -6
3 1 -1 -1 -3 -2 -2 -3 -2 -5 -3 -6 -4 -2 -1 0 1 0 0 -0 -1 -2 -3 -4 -6 -5 -7 -10 -11 -11 -11 -10 -9 -9 -8 -6 -7 -7 -6 -6 -5 -5 -5 -5
2 1 1 5 0 -3 -3 -3 -2 -2 -4 -3 -2 -1 -1 -0 0 -0 -0 -0 -0 -1 -3 -5 -7 -7 -8 -10 -11 -11 -11 -11 -12 -12 -8 -7 -7 -7 -7 -7 -6 -6 -6 -5
5 1 9 -5 -4 -4 -4 -4 -5 -4 -3 -3 -3 -1 -0 -0 0 0 -0 -0 -0 -1 -2 -5 -7 -7 -9 -11 -12 -12 -11 -11 -12 -8 -8 -8 -8 -7 -7 -7 -7 -7 -8 -6
9 1 -2 -10 -6 -4 -2 -6 -4 -4 -5 -3 1 1 0 0 0 1 1 0 0 -0 -2 -5 -8 -8 -9 -12 -13 -12 -10 -10 -11 -10 -9 -9 -9 -7 -6 -7 -7 -8 -7 -7
4 10 11 -3 -5 0 -1 -2 -3 -1 -1 1 1 4 -5 -1 -3 -1 1 1 1 -1 -4 -6 -8 -7 -8 -13 -12 -9 -12 -13 -11 -10 -10 -9 -8 -7 -6 -6 -7 -9 -10 -12
4 9 1 -4 -3 -1 -1 -2 -1 0 0 1 2 -1 0 -3 0 0 1 1 -0 -1 -6 -8 -3 -5 -15 -13 -9 -13 -18 -15 -10 -10 -9 -8 -7 -6 -6 -7 -7 -12 -13 -11
4 9 8 -5 -0 3 -1 1 0 0 0 1 1 2 1 -0 -1 0 1 -1 -2 -6 -7 -2 -7 -14 -9 -9 -13 -18 -17 -16 -10 -10 -11 -8 -6 -6 -6 -6 -7 -12 -11 -10
1 1 -2 -3 -1 -0 0 0 0 1 -0 1 1 1 1 0 -1 -1 -3 -6 -8 -7 -6 -12 -9 -9 -13 -14 -19 -19 -18 -15 -12 -9 -8 -6 -6 -6 -6 -7 -7 -8 -8 -7
2 -2 -2 -2 -2 -2 -1 -0 -0 -0 0 1 2 2 2 0 -3 -5 -7 -8 -9 -8 -6 -4 -4 -8 -18 -19 -19 -17 -16 -14 -9 -9 -14 -6 -6 -6 -6 -7 -7 -8 -8 -8
1 -1 -1 -2 -1 -1 -0 1 1 2 2 3 3 3 2 -2 -5 -7 -9 -6 -1 -0 -1 -3 -11 -17 -17 -17 -16 -15 -14 -12 -9 -7 -7 -6 -6 -6 -6 -6 -7 -7 -8 -8
3 -3 -0 -1 -1 1 2 2 3 3 3 3 3 2 -1 -5 -6 -1 -0 -0 -0 -3 -5 -10 -16 -16 -16 -15 -15 -15 -13 -10 -6 -6 -6 -6 -6 -5 -6 -6 -7 -8 -8 -9
0 1 1 1 2 4 4 3 3 2 1 -1 -2 -4 -4 -1 -0 -0 -0 -2 -4 -9 -14 -15 -16 -16 -14 -14 -14 -13 -12 -8 -7 -6 -5 -5 -6 -6 -6 -6 -7 -7 -7 -7
4 4 3 3 2 2 2 1 0 -1 -1 -1 -1 -1 -1 -0 -1 -2 -4 -5 -9 -13 -13 -14 -15 -14 -14 -13 -13 -11 -10 -10 -8 -5 -5 -5 -5 -6 -6 -6 -6 -7 -7 -7
1 3 3 -0 -0 -1 -1 -0 0 -1 -1 -1 -1 -1 -2 -3 -5 -8 -10 -12 -12 -13 -14 -14 -14 -12 -12 -11 -11 -9 -9 -7 -5 -6 -7 -7 -7 -6 -6 -7 -6 -7 -7 -7
-0 -1 -1 -1 -2 -2 -1 -1 -2 -1 -1 -2 -3 -4 -6 -8 -10 -13 -13 -12 -12 -13 -13 -13 -12 -11 -10 -10 -9 -9 -6 -5 -6 -7 -7 -7 -7 -6 -6 -6 -7 -7 -7 -7
2 -0 -1 -1 -1 -1 -1 -1 -1 -2 -3 -4 -5 -6 -7 -7 -9 -11 -11 -11 -10 -11 -11 -11 -12 -10 -9 -9 -8 -8 -5 -5 -7 -7 -7 -7 -6 -7 -7 -7 -7 -7 -7 -8
-0 -0 -1 -1 -1 -1 -2 -3 -4 -3 -4 -5 -6 -8 -12 -13 -13 -11 -10 -9 -10 -11 -12 -13 -12 -11 -9 -8 -6 -6 -5 -6 -6 -7 -7 -7 -7 -7 -8 -8 -7 -7 -7 -7
-1 -1 -1 -1 -1 -2 -3 -3 -5 -8 -12 -14 -14 -13 -12 -11 -10 -9 -9 -9 -11 -11 -12 -9 -8 -7 -7 -6 -5 -6 -6 -5 -6 -6 -7 -7 -8 -9 -8 -8 -8 -7 -7 -7
-2 -4 -6 -7 -8 -9 -11 -12 -11 -10 -10 -9 -8 -8 -9 -8 -8 -8 -9 -10 -11 -10 -9 -10 -10 -10 -10 -7 -5 -5 -6 -6 -7 -8 -8 -8 -8 -8 -8 -8 -7 -7 -7 -7
-8 -8 -8 -10 -9 -9 -8 -8 -7 -7 -6 -6 -7 -7 -8 -9 -9 -8 -8 -6 -6 -6 -6 -6 -7 -8 -7 -6 -5 -6 -7 -7 -7 -7 -8 -8 -8 -8 -7 -7 -7 -7 -7 -7
-4 -6 -9 -8 -7 -7 -7 -8 -8 -8 -8 -7 -7 -7 -7 -8 -9 -11 -11 -9 -7 -7 -9 -9 -7 -6 -6 -5 -5 -6 -6 -6 -7 -9 -8 -8 -8 -8 -8 -8 -8 -8 -8 -8
-5 -7 -6 -5 -5 -5 -5 -6 -7 -7 -9 -11 -14 -15 -16 -16 -11 -11 -11 -10 -15 -15 -12 -11 -10 -7 -6 -6 -6 -6 -6 -7 -8 -8 -10 -8 -7 -8 -8 -9 -9 -9 -9 -10
-6 -5 -4 -4 -5 -5 -7 -8 -11 -14 -16 -16 -16 -17 -16 -12 -12 -9 -10 -14 -17 -14 -10 -9 -8 -8 -7 -7 -7 -7 -6 -7 -7 -8 -9 -10 -9 -9 -9 -10 -11 -13 -15 -17
-4 -4 -5 -5 -6 -8 -11 -13 -16 -16 -17 -18 -19 -21 -22 -22 -19 -19 -14 -16 -13 -11 -10 -10 -9 -9 -7 -8 -7 -8 -8 -7 -8 -9 -10 -10 -11 -11 -11 -11 -12 -15 -17 -19
-5 -6 -7 -9 -11 -14 -16 -17 -18 -20 -23 -22 -21 -21 -19 -16 -13 -14 -13 -12 -13 -12 -11 -11 -11 -10 -10 -10 -10 -10 -12 -10 -11 -11 -12 -12 -12 -12 -12 -12 -15 -18 -19 -19
-8 -9 -11 -14 -16 -17 -20 -23 -25 -25 -24 -22 -21 -16 -14 -15 -14 -14 -14 -14 -14 -13 -13 -13 -13 -12 -12 -12 -12 -12 -13 -13 -12 -13 -13 -13 -13 -13 -14 -15 -19 -20 -19 -18

GFSNGP_850_dewp_009.txt.gz
Dewpoint
-1 -1 -3 -4 -4 -4 -4 -5 -1 -4 -11 -12 -11 -9 -8 -5 -3 -2 1 2 2 2 2 2 0 -2 -3 -3 -4 -7 -9 -9 -8 -6 -5 -6 -6 -6 -7 -6 -6 -6 -6 -5
4 -1 -1 -2 -4 -7 -6 -5 -8 -9 -8 -11 -8 -7 -6 -5 -2 -2 -0 1 2 2 1 0 -1 -3 -3 -3 -6 -7 -8 -8 -7 -6 -7 -7 -6 -6 -6 -7 -7 -7 -7 -7
1 1 1 5 2 -3 -6 -6 -6 -3 -6 -5 -4 -5 -5 -4 -2 -1 -0 1 1 1 -0 -1 -2 -3 -3 -5 -7 -7 -8 -8 -7 -7 -8 -7 -7 -8 -8 -8 -7 -7 -8 -8
3 4 8 -5 -6 -7 -4 -6 -7 -7 -7 -8 -6 -3 -3 -2 -3 -1 -1 -0 0 0 -0 -1 -2 -4 -4 -6 -7 -8 -8 -8 -8 -8 -8 -9 -9 -9 -9 -8 -8 -8 -8 -8
9 1 -4 -7 -8 -6 -5 -6 -6 -6 -8 -7 -3 -1 -3 -2 -2 -1 -1 -1 -1 -0 0 -0 -2 -5 -5 -7 -8 -9 -6 -8 -8 -11 -11 -10 -10 -10 -9 -8 -8 -8 -8 -8
3 9 9 -1 -4 -2 -3 -5 -6 -6 -5 -5 -3 -0 -4 -1 -1 -2 -2 -1 -0 0 0 -0 -3 -6 -6 -8 -7 -6 -9 -8 -10 -11 -11 -11 -11 -10 -9 -8 -8 -8 -8 -8
5 8 3 -4 -4 -3 -2 -0 -3 -2 -4 -3 -2 -3 0 1 -0 -1 -1 -0 0 1 1 -1 -3 -7 -8 -4 -8 -8 -9 -9 -10 -11 -10 -9 -9 -8 -7 -7 -7 -6 -6 -7
6 8 8 -6 -3 1 1 -2 -3 -2 -2 -1 0 -0 -0 0 0 -0 0 1 1 1 -2 -5 -7 -7 -5 -4 -6 -8 -9 -9 -9 -9 -8 -7 -6 -6 -6 -7 -6 -5 -5 -6
1 1 -2 -4 -4 -3 -1 -1 -2 -2 -2 -1 -1 -1 -0 -0 1 -0 -0 -0 -2 -4 -7 -7 -5 -4 -3 -7 -5 -7 -18 -14 -8 -7 -6 -6 -6 -6 -6 -6 -6 -6 -5 -6
1 -4 -4 -4 -4 -3 -2 -2 -1 -0 0 1 1 1 1 1 1 -2 -3 -6 -7 -6 -6 -5 -3 -1 -2 -6 -13 -20 -17 -13 -11 -11 -7 -9 -6 -6 -7 -7 -6 -6 -5 -6
-0 -3 -5 -3 -3 -1 -1 0 1 2 2 2 3 2 2 2 -2 -5 -7 -7 -5 -2 -1 -1 -4 -6 -8 -12 -18 -16 -16 -16 -12 -11 -6 -6 -6 -6 -5 -6 -6 -5 -6 -6
2 -1 0 -1 1 2 3 3 4 4 3 2 1 2 0 -4 -5 -2 -2 -1 -0 -1 -2 -4 -7 -11 -16 -17 -16 -15 -15 -13 -9 -6 -5 -5 -6 -5 -5 -6 -7 -6 -7 -7
1 2 2 2 3 2 1 0 -0 -0 -1 -2 -2 -2 -1 -1 -1 -1 -1 -1 -2 -3 -5 -9 -12 -15 -17 -15 -15 -14 -13 -13 -11 -6 -5 -6 -6 -6 -6 -5 -5 -6 -8 -8
3 4 3 2 1 0 0 1 1 1 1 0 -0 -0 -0 -1 -1 -1 -2 -3 -5 -8 -11 -13 -13 -15 -14 -13 -13 -13 -13 -10 -7 -5 -5 -6 -6 -6 -6 -6 -6 -6 -6 -6
1 2 1 -0 -0 0 1 1 0 -1 -1 -1 -1 -1 -2 -2 -3 -4 -4 -5 -8 -10 -13 -11 -11 -14 -9 -12 -11 -11 -8 -7 -8 -6 -5 -5 -6 -6 -6 -6 -6 -6 -6 -7
1 -0 -0 -0 -0 0 -0 -1 -2 -1 -1 -1 -2 -3 -4 -4 -4 -4 -5 -7 -12 -11 -7 -9 -11 -13 -12 -11 -7 -5 -6 -5 -5 -5 -5 -6 -6 -6 -6 -6 -6 -6 -7 -8
1 1 0 0 0 -0 -1 -1 -1 -1 -1 -1 -1 -3 -4 -8 -11 -8 -9 -9 -11 -10 -10 -10 -11 -11 -11 -11 -9 -5 -5 -5 -4 -5 -5 -6 -7 -7 -7 -7 -7 -7 -7 -7
1 1 0 -0 -0 -1 -1 -1 -1 -3 -5 -8 -12 -14 -13 -12 -11 -10 -10 -9 -9 -10 -11 -10 -10 -10 -9 -9 -8 -6 -5 -4 -4 -4 -5 -5 -6 -6 -7 -8 -7 -8 -8 -8
-0 -0 -1 -1 -1 -3 -4 -9 -11 -12 -11 -11 -10 -10 -8 -8 -7 -8 -9 -10 -11 -8 -6 -6 -7 -8 -8 -9 -9 -8 -6 -4 -4 -5 -5 -6 -7 -7 -6 -7 -7 -9 -8 -8
-3 -4 -5 -8 -10 -11 -10 -9 -8 -7 -7 -7 -8 -9 -9 -9 -9 -9 -9 -8 -7 -4 -4 -4 -5 -5 -5 -5 -5 -5 -5 -5 -6 -5 -6 -7 -7 -7 -7 -7 -7 -8 -8 -8
-5 -8 -9 -9 -9 -8 -7 -7 -7 -8 -8 -8 -8 -9 -9 -10 -12 -15 -17 -12 -9 -6 -7 -13 -18 -18 -12 -12 -9 -7 -6 -6 -5 -6 -6 -6 -7 -8 -8 -7 -8 -7 -7 -8
-3 -7 -8 -7 -6 -7 -8 -7 -7 -7 -8 -12 -15 -17 -18 -16 -13 -9 -9 -8 -7 -8 -10 -13 -13 -10 -9 -9 -8 -8 -7 -7 -6 -6 -6 -6 -7 -9 -7 -7 -7 -7 -8 -8
-5 -7 -6 -5 -5 -6 -6 -7 -8 -10 -13 -16 -17 -17 -18 -14 -9 -9 -9 -9 -10 -10 -11 -12 -11 -11 -11 -10 -10 -8 -8 -7 -7 -7 -6 -7 -9 -9 -9 -8 -8 -9 -9 -9
-7 -6 -5 -4 -5 -5 -7 -9 -12 -13 -16 -16 -13 -17 -16 -12 -11 -11 -11 -11 -12 -13 -13 -12 -12 -12 -12 -11 -10 -10 -9 -8 -7 -9 -10 -9 -9 -10 -10 -10 -10 -10 -11 -11
-4 -4 -5 -5 -7 -9 -11 -13 -14 -12 -14 -13 -11 -12 -12 -12 -12 -12 -13 -13 -13 -14 -13 -14 -14 -13 -13 -13 -13 -12 -12 -12 -11 -11 -12 -12 -11 -12 -12 -12 -12 -12 -12 -12
-5 -6 -7 -9 -11 -13 -16 -19 -19 -12 -13 -12 -12 -12 -12 -13 -14 -14 -14 -15 -15 -15 -15 -15 -15 -15 -14 -14 -14 -14 -14 -13 -13 -13 -13 -13 -13 -13 -13 -14 -14 -14 -14 -15
-8 -9 -9 -10 -13 -18 -23 -22 -15 -14 -12 -14 -14 -13 -13 -14 -15 -15 -15 -16 -16 -16 -16 -16 -17 -16 -16 -15 -15 -15 -15 -15 -15 -15 -15 -15 -16 -17 -19 -20 -21 -22 -22 -22

GFSNGP_850_dewp_015.txt.gz
Dewpoint
1 2 0 -1 0 -0 -4 0 1 -0 0 -2 -5 -5 -5 -4 -5 -5 -3 0 2 2 1 1 2 3 3 3 3 2 -2 -2 -4 -6 -5 -4 -5 -5 -4 -5 -5 -6 -7 -7
3 2 2 1 1 -0 -0 -2 -4 -3 -3 -6 -5 -6 -6 -5 -5 -4 -4 -4 -3 -0 2 2 3 3 3 3 3 1 -2 -3 -5 -6 -5 -5 -4 -2 -6 -8 -8 -7 -8 -7
5 2 1 1 -0 -0 -0 -1 -2 -2 -4 -5 -2 -3 -5 -5 -5 -4 -3 -3 -3 -0 2 3 4 3 3 3 2 -0 -2 -3 -7 -6 -6 -4 -3 -2 -8 -7 -8 -8 -8 -8
4 2 -0 -0 -3 -5 -2 -3 -4 -3 -2 -3 -4 -1 -1 -2 -2 -2 -1 -1 -1 -1 -0 2 3 3 3 3 1 -2 -2 -5 -7 -6 -5 -3 -2 -6 -8 -9 -8 -9 -9 -8
3 4 1 -2 -4 -2 -4 -2 -3 -2 -3 -3 -4 -2 1 -1 -1 -2 -2 -2 -1 -2 -2 -1 -0 1 2 2 -1 -2 -5 -6 -6 -6 -4 -2 -5 -8 -8 -9 -10 -10 -9 -8
4 4 1 1 -3 -4 -4 1 -1 -2 -1 -1 -2 1 2 -0 -1 -1 -1 -1 -1 -0 -0 -0 0 1 -0 -1 -3 -6 -6 -6 -5 -4 -2 -2 -6 -10 -9 -8 -9 -8 -8 -8
3 3 3 2 -4 -5 -1 1 -1 -2 -1 -1 1 1 -1 -1 -0 0 0 -0 -1 -0 0 0 0 -0 -2 -4 -5 -6 -5 -4 -3 -2 -2 -5 -10 -9 -8 -8 -10 -13 -7 -6
6 6 6 -3 -3 -3 2 -1 -2 -2 -2 -1 -1 1 1 1 1 0 -0 -0 0 1 -1 -2 -3 -3 -4 -5 -4 -3 -3 -2 -2 -2 -5 -10 -7 -8 -12 -14 -12 -7 -6 -5
4 4 2 -4 -3 -2 -3 -3 -2 -1 1 1 2 3 2 1 0 -2 -3 -2 -2 -1 -2 -4 -4 -4 -4 -3 -3 -2 -1 -0 -1 -7 -12 -15 -13 -14 -13 -11 -7 -7 -6 -6
1 -2 -1 -5 -4 -2 -1 1 2 3 3 3 3 2 1 -0 -2 -4 -5 -5 -5 -5 -5 -5 -5 -5 -5 -4 -3 -1 -1 -6 -9 -13 -16 -15 -14 -11 -8 -6 -6 -7 -5 -5
2 -1 2 3 3 3 3 3 3 3 2 1 2 -1 -1 -3 -4 -5 -5 -5 -5 -4 -4 -4 -3 -2 -2 -2 -3 -7 -10 -16 -15 -15 -15 -14 -13 -10 -8 -6 -6 -7 -9 -6
2 3 4 3 3 3 3 2 0 1 0 -1 -1 -2 -3 -3 -3 -2 -1 -1 -2 -1 -1 -1 -2 -5 -8 -12 -14 -16 -16 -14 -14 -14 -14 -13 -11 -10 -8 -6 -5 -6 -7 -7
4 3 2 2 1 1 1 0 0 0 1 0 -1 -1 -1 -1 -1 -1 -1 -1 -2 -4 -4 -6 -8 -10 -12 -12 -12 -12 -12 -13 -13 -12 -12 -11 -9 -8 -7 -6 -6 -6 -7 -7
3 2 1 2 2 2 1 1 1 -0 -1 -2 -2 -3 -3 -3 -3 -4 -4 -4 -4 -5 -8 -9 -9 -8 -7 -7 -8 -6 -6 -8 -10 -11 -9 -8 -7 -6 -5 -5 -7 -8 -8 -9
2 3 2 2 2 1 0 -1 -1 -1 -1 -2 -2 -2 -3 -3 -4 -4 -5 -5 -6 -8 -10 -9 -9 -9 -10 -10 -10 -9 -8 -6 -5 -5 -5 -5 -5 -4 -5 -5 -5 -6 -6 -7
1 1 1 1 1 -0 -1 -1 -2 -2 -2 -3 -3 -4 -5 -6 -6 -7 -8 -10 -11 -10 -10 -9 -8 -6 -6 -6 -6 -6 -6 -6 -4 -4 -4 -4 -4 -5 -5 -5 -5 -7 -7 -6
1 1 0 0 -0 -1 -1 -1 -2 -3 -3 -5 -9 -13 -14 -13 -12 -11 -11 -10 -9 -7 -4 -4 -5 -5 -5 -6 -7 -8 -12 -14 -12 -8 -6 -5 -5 -6 -5 -6 -7 -6 -5 -8
1 1 0 0 -1 -1 -2 -2 -3 -8 -12 -12 -11 -11 -11 -11 -11 -11 -14 -17 -16 -7 -5 -6 -7 -8 -9 -11 -16 -19 -16 -15 -15 -15 -15 -14 -12 -9 -6 -6 -6 -6 -6 -6
1 -0 -0 -1 -2 -2 -5 -9 -11 -10 -9 -9 -9 -10 -13 -17 -18 -18 -16 -15 -14 -11 -11 -9 -9 -10 -17 -23 -21 -20 -19 -17 -13 -11 -10 -10 -10 -10 -10 -9 -8 -6 -6 -6
-1 -1 -2 -2 -5 -10 -11 -9 -8 -9 -9 -9 -13 -16 -16 -16 -17 -17 -13 -11 -9 -9 -9 -13 -20 -26 -23 -21 -20 -17 -14 -12 -12 -13 -12 -11 -10 -9 -8 -8 -8 -7 -7 -6
-2 -5 -10 -11 -10 -9 -7 -7 -8 -9 -10 -13 -13 -14 -16 -19 -20 -19 -20 -14 -12 -13 -17 -23 -24 -23 -19 -18 -17 -15 -14 -13 -13 -13 -13 -12 -12 -10 -9 -9 -8 -8 -7 -7
-10 -10 -9 -9 -9 -9 -8 -8 -8 -10 -11 -12 -13 -15 -19 -21 -22 -20 -16 -14 -15 -20 -23 -21 -21 -20 -18 -17 -17 -16 -15 -15 -15 -14 -14 -14 -14 -13 -13 -12 -11 -11 -11 -10
-8 -8 -7 -7 -7 -7 -8 -9 -10 -11 -12 -13 -15 -19 -20 -21 -20 -18 -16 -17 -18 -20 -21 -18 -17 -18 -19 -18 -18 -17 -16 -16 -16 -16 -15 -15 -15 -15 -15 -14 -14 -13 -13 -13
-8 -6 -5 -5 -6 -7 -8 -10 -10 -11 -12 -15 -17 -18 -20 -20 -18 -17 -17 -17 -18 -18 -18 -17 -17 -17 -18 -18 -18 -18 -18 -17 -17 -17 -17 -17 -16 -16 -16 -16 -16 -15 -15 -14
-6 -5 -6 -7 -8 -9 -9 -11 -11 -12 -16 -19 -19 -18 -16 -14 -14 -15 -16 -17 -18 -17 -17 -17 -18 -18 -18 -18 -19 -19 -19 -19 -19 -18 -19 -18 -18 -18 -18 -17 -17 -17 -17 -17
-5 -6 -7 -8 -8 -9 -12 -18 -21 -20 -21 -22 -18 -18 -15 -14 -14 -15 -16 -17 -18 -18 -17 -18 -19 -19 -19 -19 -19 -20 -20 -20 -19 -19 -20 -19 -19 -19 -19 -19 -19 -19 -19 -19
-7 -8 -8 -8 -10 -16 -21 -23 -25 -25 -21 -16 -15 -17 -14 -14 -14 -16 -16 -17 -18 -18 -18 -19 -19 -19 -19 -20 -20 -20 -20 -20 -20 -20 -20 -20 -20 -19 -19 -19 -19 -19 -20 -20

GFSNGP_850_dewp_021.txt.gz
Dewpoint
-2 -2 1 -0 -0 -1 -0 -1 1 -0 1 -1 -4 -5 -6 -6 -4 -1 2 4 5 7 8 8 8 8 8 8 7 7 6 5 5 2 2 1 -1 -3 -4 -4 -5 -6 -6 -1
3 1 1 1 -0 -0 -0 -1 -1 -2 -2 -4 -4 -4 -3 -4 -3 -1 -0 0 2 3 4 4 4 5 7 7 7 6 5 5 3 2 1 -1 -3 -4 -5 -5 -5 -6 -2 -1
2 1 0 2 0 -0 -1 -2 -2 -0 -2 -3 -1 -1 -1 -1 -1 -1 -1 -1 -1 -1 -1 -1 -0 1 2 3 5 5 5 3 3 2 -0 -2 -4 -4 -4 -5 -4 -2 -1 -5
2 1 3 -0 -1 -2 -2 -2 -3 -2 -1 -0 -0 -1 -1 -1 -1 -1 -1 -2 -2 -2 -2 -1 -1 -0 1 3 3 4 4 3 2 -0 -2 -3 -4 -4 -3 -1 -1 -1 -1 -8
4 4 1 -0 -3 -2 -2 -2 -2 -0 0 1 1 -0 1 -0 -1 -1 -1 -1 -1 -1 -1 -1 -1 -1 2 3 4 4 2 1 0 -1 -3 -3 -1 -1 -1 -1 -1 -2 -8 -8
3 4 3 1 -2 -4 -3 1 -2 -1 0 1 -1 0 1 1 -0 -1 -1 -0 0 0 0 0 0 -0 1 4 4 3 1 -1 -2 -3 -3 -3 -1 -1 -1 -1 -2 -7 -9 -13
2 2 1 -2 -2 -5 -1 -1 -2 -2 -1 -2 -0 -1 1 0 -0 -0 -0 -0 -0 -0 0 -0 -0 -0 1 2 1 -1 -2 -3 -3 -3 -2 -1 -1 -1 -0 -2 -6 -11 -15 -17
2 1 2 -2 -2 -4 -3 -1 -2 -1 -1 -1 0 1 -0 -0 -0 -1 -1 -1 -1 -1 -1 -2 -2 -1 -1 -1 -3 -4 -4 -3 -2 -0 -1 -0 -1 -2 -4 -8 -13 -14 -14 -14
2 2 -1 -1 -4 -5 -2 -2 -2 -2 -1 -1 1 -0 -1 -1 -2 -2 -2 -2 -3 -3 -3 -4 -4 -4 -3 -3 -3 -3 -2 -0 -1 -2 -3 -6 -8 -11 -13 -13 -13 -14 -12 -14
2 1 1 -1 -1 -2 -2 -2 -1 -1 1 1 0 -1 -2 -2 -3 -4 -4 -5 -5 -5 -4 -4 -3 -3 -3 -3 -3 -5 -9 -13 -14 -15 -14 -14 -14 -14 -13 -14 -13 -12 -12 -12
3 4 3 2 -0 -1 -2 -1 0 2 2 1 0 -2 -2 -3 -4 -4 -4 -3 -2 -2 -2 -3 -6 -8 -11 -12 -13 -14 -13 -12 -11 -11 -10 -11 -12 -11 -11 -11 -10 -10 -10 -10
2 3 1 3 2 1 1 2 2 2 0 -1 -0 -1 -3 -3 -3 -2 -2 -2 -3 -5 -7 -7 -9 -10 -9 -10 -11 -12 -12 -12 -12 -11 -11 -11 -11 -12 -12 -11 -9 -7 -6 -6
-0 1 2 2 2 2 2 1 1 0 -0 -1 -2 -2 -2 -1 -2 -3 -5 -6 -6 -7 -8 -8 -8 -8 -9 -10 -11 -11 -11 -10 -10 -10 -9 -8 -8 -7 -8 -12 -10 -9 -8 -6
1 1 2 2 1 1 1 0 -0 -1 -1 -1 -1 -1 -2 -3 -4 -4 -5 -5 -6 -8 -9 -9 -9 -10 -10 -9 -9 -8 -8 -8 -10 -12 -15 -19 -22 -22 -21 -19 -14 -19 -10 -7
2 2 1 2 1 0 0 0 -0 -1 -2 -3 -3 -4 -4 -4 -5 -5 -5 -6 -7 -10 -11 -10 -9 -8 -9 -10 -13 -15 -16 -20 -25 -29 -29 -27 -25 -23 -21 -19 -16 -15 -20 -22
2 2 1 1 1 -0 -1 -2 -2 -3 -3 -3 -4 -4 -4 -4 -5 -6 -9 -10 -10 -12 -11 -11 -12 -12 -13 -15 -19 -27 -30 -30 -29 -28 -26 -24 -21 -18 -16 -14 -13 -11 -11 -11
1 0 1 -0 -1 -1 -1 -2 -2 -3 -3 -4 -4 -5 -7 -10 -12 -12 -12 -12 -14 -14 -14 -13 -14 -16 -21 -28 -31 -31 -30 -29 -28 -25 -22 -20 -17 -15 -14 -14 -13 -13 -12 -11
2 1 1 1 -1 -1 -2 -2 -3 -4 -4 -6 -10 -12 -12 -12 -15 -17 -16 -15 -14 -12 -14 -17 -20 -25 -29 -30 -30 -29 -28 -27 -24 -21 -19 -17 -16 -15 -15 -14 -14 -14 -13 -13
1 1 0 0 -0 -1 -2 -3 -4 -6 -10 -12 -12 -12 -15 -16 -15 -15 -14 -14 -16 -19 -20 -22 -26 -28 -28 -28 -28 -26 -25 -23 -22 -21 -19 -18 -17 -16 -16 -16 -16 -15 -15 -14
1 0 -0 -1 -1 -2 -3 -4 -9 -11 -11 -11 -14 -15 -14 -14 -16 -18 -19 -20 -20 -21 -22 -25 -26 -27 -27 -27 -26 -25 -23 -22 -21 -20 -20 -19 -18 -18 -17 -17 -17 -16 -16 -16
-0 -1 -1 -2 -3 -4 -9 -11 -10 -10 -12 -15 -14 -13 -14 -16 -18 -20 -20 -21 -22 -23 -25 -25 -25 -26 -26 -26 -24 -23 -22 -21 -21 -21 -20 -20 -19 -19 -19 -18 -18 -18 -17 -17
-1 -1 -2 -4 -7 -9 -8 -8 -10 -12 -13 -13 -13 -14 -17 -19 -20 -21 -22 -22 -22 -22 -23 -24 -24 -24 -24 -23 -22 -22 -22 -21 -21 -20 -20 -20 -20 -20 -20 -19 -19 -19 -19 -18
-1 -2 -4 -8 -8 -8 -8 -10 -11 -12 -12 -12 -14 -17 -19 -20 -21 -21 -20 -20 -19 -20 -20 -21 -22 -22 -22 -22 -22 -21 -21 -21 -21 -21 -20 -20 -20 -20 -20 -20 -20 -19 -19 -19
-4 -7 -7 -7 -8 -9 -10 -11 -11 -11 -11 -13 -15 -18 -20 -22 -21 -19 -18 -16 -16 -17 -18 -20 -20 -21 -21 -22 -21 -21 -21 -21 -21 -21 -21 -20 -21 -21 -22 -22 -22 -21 -21 -20
-7 -7 -7 -7 -7 -9 -9 -10 -10 -10 -12 -15 -17 -19 -20 -19 -18 -17 -16 -16 -16 -18 -19 -20 -20 -21 -21 -21 -21 -21 -21 -21 -21 -21 -21 -21 -22 -22 -22 -22 -22 -22 -22 -22
-5 -6 -6 -7 -8 -8 -9 -9 -10 -11 -15 -18 -19 -18 -17 -17 -16 -16 -16 -16 -17 -19 -20 -20 -20 -20 -20 -21 -21 -21 -21 -21 -21 -21 -22 -22 -22 -22 -22 -22 -22 -22 -22 -22
-6 -7 -8 -9 -9 -10 -10 -11 -15 -21 -22 -21 -18 -17 -16 -16 -16 -16 -16 -17 -18 -19 -21 -21 -20 -20 -20 -21 -21 -21 -21 -21 -22 -23 -22 -22 -22 -22 -22 -22 -22 -22 -22 -22

GFSNGP_850_dewp_024.txt.gz
Dewpoint
-2 -2 0 0 -0 1 0 0 1 0 -0 -2 -3 -4 -5 -6 -5 -1 2 3 4 5 6 8 8 9 9 8 8 9 9 8 7 6 5 5 3 0 -3 -3 -6 -4 -5 -5
2 1 1 1 -0 -0 -1 -1 -1 -1 -1 -4 -4 -3 -3 -3 -0 1 1 1 1 1 1 1 1 2 2 2 3 5 7 7 6 5 5 5 2 -3 -3 -5 -5 -5 -5 -2
2 1 0 2 1 0 -0 -1 -1 0 -2 -3 -2 -1 -1 -1 -0 -1 -1 -1 -2 -2 -2 -2 -3 -3 -3 -1 1 4 5 6 5 5 4 4 -1 -3 -4 -5 -5 -4 -2 -2
2 1 2 -0 -2 -2 -1 -2 -3 -3 -3 -2 -1 -1 -1 -1 -1 -1 -2 -2 -2 -1 -1 -1 -2 -2 -1 0 2 3 4 5 5 3 2 -1 -2 -3 -4 -4 -4 -2 -2 -1
3 3 0 -0 -2 -1 -1 -2 -3 -2 0 -0 0 1 1 -0 -1 -1 -1 -1 -0 -0 -0 -0 -0 -1 -1 -0 3 4 4 3 2 1 0 -1 -3 -4 -2 -2 -2 -2 -1 -1
1 3 3 1 -2 -4 -4 -0 -2 0 1 1 -1 -1 1 -0 -1 -1 -0 -0 -0 0 0 0 0 -0 -0 1 2 2 1 1 0 -1 -2 -2 -2 -1 -1 -1 -1 -1 -1 -2
1 2 2 -0 -3 -5 -1 -0 -2 -0 1 0 -2 -3 -0 -0 -1 -1 -0 -0 -0 -0 0 -0 -1 -0 -0 0 0 -0 -1 -1 -2 -2 -2 -1 -1 -1 -1 -1 -1 -2 -5 -8
1 1 5 -3 -3 -1 -1 -4 -3 -1 0 -1 -1 -0 0 -0 -1 -1 -0 -1 -1 -1 -2 -2 -2 -1 -1 -2 -3 -3 -3 -3 -2 -1 -0 -1 -1 -2 -4 -6 -9 -11 -12 -15
3 3 -0 -2 -3 -5 -5 -4 -3 -1 -1 -2 -2 -0 -0 -1 -1 -1 -2 -2 -3 -3 -3 -4 -3 -3 -3 -3 -2 -1 -1 -3 -7 -10 -12 -11 -12 -13 -14 -14 -13 -13 -13 -14
1 0 0 -0 -2 -2 -3 -3 -3 -2 -2 -2 -2 -1 -1 -1 -2 -2 -3 -4 -4 -4 -4 -3 -3 -3 -4 -4 -7 -10 -13 -14 -14 -15 -15 -14 -13 -13 -12 -12 -11 -11 -10 -10
1 3 3 1 -0 -1 -2 -2 -2 -2 -2 -1 -1 -1 -1 -2 -3 -4 -4 -4 -3 -2 -3 -4 -6 -8 -10 -11 -12 -13 -13 -13 -13 -12 -12 -12 -11 -10 -10 -9 -7 -7 -6 -6
3 1 -0 -2 -0 -1 -1 -1 -1 -1 0 -1 -1 -1 -2 -3 -4 -3 -2 -2 -3 -4 -6 -7 -9 -10 -10 -10 -11 -12 -12 -11 -11 -10 -10 -10 -11 -13 -16 -19 -22 -23 -23 -13
-0 0 0 -0 0 -0 -0 1 1 2 1 -1 -1 -1 -3 -3 -2 -2 -3 -5 -6 -8 -8 -8 -8 -9 -10 -11 -10 -10 -10 -12 -14 -18 -23 -28 -30 -31 -33 -34 -31 -29 -25 -23
-0 1 2 1 1 1 1 1 1 0 -1 -1 -2 -3 -2 -2 -3 -4 -5 -6 -7 -8 -8 -9 -9 -10 -10 -10 -12 -16 -19 -23 -29 -32 -32 -32 -31 -30 -28 -27 -28 -28 -22 -18
2 1 -0 1 1 1 0 -0 -0 -1 -2 -2 -1 -1 -2 -3 -4 -5 -6 -6 -7 -9 -10 -9 -9 -11 -14 -16 -20 -27 -30 -32 -33 -32 -31 -30 -28 -27 -24 -21 -20 -18 -19 -18
2 1 1 1 1 0 -0 -1 -0 -1 -1 -1 -2 -3 -4 -4 -5 -5 -6 -8 -9 -10 -11 -13 -14 -17 -20 -25 -29 -31 -32 -32 -31 -30 -29 -28 -26 -24 -22 -20 -18 -16 -16 -15
1 0 1 0 0 -0 -0 -0 -1 -2 -3 -3 -4 -4 -5 -5 -6 -9 -10 -9 -10 -14 -14 -15 -19 -22 -27 -30 -31 -31 -31 -30 -29 -28 -27 -25 -24 -22 -20 -18 -17 -17 -16 -16
2 1 1 1 0 -1 -2 -2 -2 -3 -3 -4 -4 -4 -7 -10 -12 -12 -14 -13 -14 -15 -18 -20 -23 -27 -29 -30 -30 -30 -29 -28 -27 -26 -24 -23 -22 -21 -20 -19 -18 -18 -18 -17
2 1 1 0 -0 -1 -2 -2 -3 -4 -4 -5 -9 -11 -12 -14 -15 -14 -13 -14 -17 -19 -20 -23 -27 -29 -29 -29 -29 -28 -27 -26 -25 -24 -23 -22 -21 -21 -20 -20 -20 -19 -19 -18
1 0 0 -0 -1 -1 -2 -3 -4 -7 -7 -7 -9 -13 -15 -14 -13 -15 -16 -18 -20 -22 -23 -25 -27 -28 -28 -28 -27 -26 -25 -24 -24 -23 -22 -21 -21 -21 -20 -20 -20 -20 -20 -19
0 -0 -0 -0 -1 -2 -2 -3 -4 -6 -10 -13 -15 -14 -13 -14 -16 -18 -20 -20 -21 -22 -24 -26 -27 -27 -27 -26 -25 -24 -24 -23 -22 -22 -22 -21 -21 -21 -21 -20 -20 -20 -20 -20
-0 -0 -1 -2 -3 -4 -4 -5 -8 -11 -13 -14 -14 -13 -14 -15 -18 -19 -21 -21 -21 -22 -24 -25 -25 -25 -25 -24 -23 -23 -22 -22 -22 -21 -21 -21 -21 -21 -21 -21 -22 -22 -22 -22
-2 -2 -3 -3 -3 -4 -6 -9 -12 -13 -13 -13 -13 -14 -17 -18 -20 -20 -21 -20 -21 -21 -22 -24 -23 -22 -22 -22 -22 -22 -22 -21 -21 -21 -21 -21 -21 -21 -22 -22 -22 -22 -22 -22
-3 -3 -4 -4 -5 -7 -10 -12 -13 -12 -12 -12 -14 -17 -18 -20 -20 -20 -20 -19 -19 -19 -20 -21 -21 -21 -20 -21 -21 -21 -21 -21 -21 -21 -21 -21 -22 -22 -22 -22 -22 -22 -22 -22
-4 -4 -5 -5 -7 -9 -10 -11 -11 -11 -12 -13 -15 -17 -19 -20 -20 -19 -19 -18 -18 -18 -19 -20 -21 -20 -20 -20 -20 -21 -21 -21 -21 -21 -21 -23 -23 -22 -22 -22 -22 -22 -22 -22
-5 -6 -6 -7 -8 -9 -9 -10 -9 -10 -11 -14 -17 -18 -18 -19 -18 -18 -18 -17 -17 -18 -19 -20 -21 -20 -20 -20 -21 -21 -21 -21 -21 -22 -23 -23 -22 -22 -23 -23 -23 -22 -22 -22
-7 -8 -9 -9 -9 -10 -10 -10 -11 -12 -12 -12 -13 -16 -18 -18 -17 -17 -17 -17 -17 -18 -20 -21 -21 -21 -20 -21 -21 -21 -21 -21 -22 -24 -24 -23 -24 -26 -26 -26 -26 -24 -23 -22

GFSNGP_850_dewp_027.txt.gz
Dewpoint
-2 -3 -1 -1 -0 1 0 1 3 1 0 -2 -2 -3 -4 -5 -4 1 3 4 5 5 6 7 8 8 8 8 8 7 7 7 7 8 8 8 7 6 4 2 -1 -7 -7 -5
-0 0 0 1 0 0 0 -0 0 -1 -0 -3 -3 -4 -3 -2 1 2 2 2 2 1 1 0 -0 -0 -1 -1 -1 -0 2 4 5 6 6 6 5 4 1 -2 -6 -7 -6 -5
2 1 1 4 2 1 1 -0 0 2 0 -3 -2 -1 -2 1 0 -0 -1 -1 -1 -2 -2 -2 -2 -2 -2 -2 -1 -0 1 3 4 5 5 4 3 3 1 -2 -5 -6 -6 -3
4 2 6 1 -1 -1 0 -0 -1 -2 -2 -3 -2 -0 -0 -1 -1 -1 -1 -1 -1 -1 -1 -1 -1 -1 -1 -2 -1 1 3 4 4 4 4 3 3 1 -2 -4 -5 -3 -3 -1
6 4 2 -1 -1 -0 0 -2 -2 -2 -2 -1 1 1 0 -0 -1 -1 -1 -1 -1 -0 -0 -0 -0 -1 -1 -2 0 2 3 3 2 1 1 0 -1 -2 -1 -1 -1 -1 -1 -2
3 5 5 2 -2 -3 -3 1 -2 -2 0 1 1 3 1 -1 -1 -1 -1 -0 -0 0 0 0 -0 -0 -1 -1 1 1 1 1 0 -0 -1 -1 -1 -1 -1 -1 -1 -1 -1 -1
3 6 4 0 -3 -4 2 2 -2 -2 0 1 0 -1 -0 -1 -1 -1 -0 -0 -0 -0 -0 -0 -1 -1 -1 -0 -1 -1 -1 -1 -1 -2 -2 -2 -1 -1 -1 -1 -1 -2 -3 -6
4 6 6 -2 -3 1 1 -4 -4 -1 0 0 -2 -1 -0 -1 -1 -1 -1 -1 -1 -1 -1 -2 -2 -2 -2 -2 -2 -3 -3 -2 -2 -1 -1 -1 -3 -5 -8 -9 -11 -13 -14 -14
5 6 2 -3 -2 -4 -5 -5 -4 -1 -0 -1 -1 -0 -1 -1 -1 -2 -2 -2 -2 -2 -3 -3 -3 -3 -3 -2 -2 -1 -2 -5 -9 -12 -14 -15 -14 -14 -14 -13 -12 -11 -11 -11
3 2 1 -2 -3 -3 -4 -5 -4 -2 -1 -1 -2 -1 -1 -1 -2 -2 -3 -3 -3 -3 -3 -3 -3 -3 -4 -5 -8 -11 -13 -13 -14 -13 -13 -12 -12 -11 -11 -11 -11 -11 -13 -14
2 1 3 1 -1 -3 -3 -3 -3 -1 -0 -1 -2 -1 -1 -2 -2 -3 -3 -3 -4 -3 -3 -5 -7 -8 -10 -10 -11 -12 -13 -13 -13 -13 -13 -14 -15 -19 -24 -29 -30 -29 -25 -23
4 -1 -0 -1 -2 -2 -2 -2 -2 -2 -1 -1 -2 -1 -1 -2 -3 -3 -3 -3 -3 -4 -5 -7 -8 -9 -10 -11 -12 -13 -13 -14 -17 -21 -25 -28 -31 -33 -34 -33 -32 -31 -29 -26
-0 -2 -2 -3 -2 -2 -2 -2 -1 -1 -1 -1 -1 -1 -2 -3 -3 -3 -3 -3 -5 -7 -8 -8 -9 -10 -12 -12 -13 -16 -20 -23 -28 -30 -32 -34 -34 -33 -33 -32 -32 -31 -29 -25
-1 -0 0 -0 0 -0 -1 -1 -0 -0 -1 -1 -1 -2 -2 -3 -2 -3 -4 -6 -7 -8 -9 -9 -10 -11 -12 -15 -19 -23 -27 -29 -32 -34 -34 -34 -33 -33 -32 -30 -28 -26 -24 -23
1 0 1 -0 -0 0 0 0 1 -0 -1 -1 -2 -2 -2 -2 -3 -5 -6 -7 -8 -9 -10 -10 -11 -14 -18 -21 -25 -28 -30 -33 -34 -33 -32 -32 -31 -30 -30 -28 -26 -24 -24 -23
1 1 1 1 0 1 0 0 0 -1 -2 -2 -2 -2 -2 -3 -4 -5 -6 -7 -9 -10 -11 -13 -16 -19 -22 -26 -28 -31 -33 -33 -32 -31 -31 -30 -29 -28 -26 -25 -24 -23 -22 -21
1 1 1 0 0 -0 -1 -1 -1 -2 -2 -2 -2 -2 -4 -4 -5 -6 -7 -9 -10 -12 -15 -17 -20 -22 -26 -28 -30 -32 -32 -31 -30 -29 -28 -27 -26 -25 -24 -23 -22 -22 -21 -21
1 1 1 0 0 -0 -1 -1 -1 -1 -1 -2 -3 -3 -4 -4 -5 -8 -8 -10 -13 -14 -18 -20 -22 -26 -28 -30 -31 -30 -30 -29 -28 -28 -27 -25 -24 -23 -22 -22 -21 -21 -21 -21
3 4 2 1 -0 -0 -1 -1 -1 -2 -2 -3 -3 -4 -5 -7 -6 -10 -13 -13 -15 -18 -19 -22 -25 -27 -29 -29 -29 -29 -28 -27 -26 -26 -25 -24 -23 -22 -22 -22 -21 -21 -21 -21
1 1 0 -0 -1 -1 -2 -2 -2 -2 -3 -4 -5 -5 -5 -7 -12 -13 -13 -15 -18 -20 -22 -23 -26 -27 -28 -28 -28 -27 -26 -25 -25 -24 -23 -23 -22 -22 -21 -21 -21 -22 -22 -23
-0 -0 -1 -2 -2 -2 -2 -3 -3 -4 -4 -4 -5 -6 -11 -12 -12 -14 -16 -18 -19 -21 -22 -24 -25 -26 -26 -26 -26 -25 -24 -24 -23 -23 -22 -22 -22 -21 -21 -22 -23 -23 -23 -23
-1 -1 -1 -2 -2 -3 -3 -4 -4 -4 -5 -7 -9 -13 -12 -13 -14 -17 -18 -20 -20 -21 -21 -22 -24 -25 -25 -24 -23 -23 -23 -23 -22 -22 -22 -21 -21 -21 -22 -23 -23 -23 -23 -23
-2 -2 -3 -3 -4 -4 -5 -5 -5 -6 -9 -12 -13 -13 -14 -15 -16 -18 -19 -19 -19 -19 -20 -21 -22 -24 -24 -22 -22 -22 -22 -22 -22 -21 -21 -21 -21 -22 -23 -23 -23 -23 -23 -23
-3 -3 -4 -4 -5 -5 -6 -8 -10 -11 -13 -14 -15 -15 -16 -17 -18 -19 -19 -18 -18 -18 -19 -21 -22 -22 -22 -21 -21 -21 -21 -22 -21 -21 -21 -21 -22 -24 -23 -23 -23 -23 -23 -23
-4 -5 -5 -5 -6 -8 -9 -11 -11 -10 -10 -11 -12 -14 -17 -18 -17 -17 -17 -17 -17 -18 -19 -20 -21 -22 -22 -21 -21 -21 -21 -21 -21 -21 -21 -22 -24 -24 -23 -25 -26 -26 -26 -24
-6 -7 -8 -8 -9 -9 -9 -10 -9 -10 -10 -11 -11 -12 -12 -13 -14 -15 -17 -17 -18 -18 -19 -20 -21 -21 -21 -21 -21 -21 -21 -21 -21 -21 -22 -24 -24 -24 -26 -26 -26 -25 -26 -26
-9 -9 -9 -10 -10 -10 -10 -11 -11 -11 -12 -12 -13 -13 -13 -14 -15 -16 -17 -17 -18 -19 -20 -20 -21 -21 -22 -21 -21 -21 -21 -21 -21 -22 -25 -26 -25 -26 -26 -26 -25 -25 -24 -26

GFSNGP_850_dewp_030.txt.gz
Dewpoint
-5 -6 -6 -5 -5 -3 -2 -2 -1 -3 -3 -3 -5 -4 -4 -3 -2 1 3 5 6 7 8 9 9 9 9 9 9 8 7 7 7 7 7 7 7 7 7 6 6 5 3 -3
-1 -4 -3 -3 -5 -6 -5 -5 -5 -3 -2 -5 -5 -3 -3 -3 0 2 3 4 5 5 5 4 5 6 3 2 1 1 1 2 3 5 5 5 5 5 5 4 2 -1 -4 -4
0 1 0 3 0 -3 -3 -4 -3 -1 -2 -5 -3 -3 -3 -0 1 1 1 2 2 3 3 2 -1 -0 -1 -1 -0 1 2 3 4 4 4 4 4 3 2 -0 -2 -3 -5 -4
3 5 9 -2 -2 -3 -3 -4 -3 -2 -3 -4 -4 -2 -1 0 1 0 -0 0 1 -0 -1 -1 -1 -2 -2 -2 -1 0 2 3 3 3 3 3 3 2 1 0 -1 -2 -3 -5
9 4 -0 -1 -1 -1 0 -1 -3 -2 -4 -4 -1 -0 0 0 0 0 1 1 1 0 -0 -0 -1 -1 -1 -2 -1 1 2 2 2 1 1 0 -0 -1 -1 -2 -2 -3 -5 -4
5 5 8 -1 -3 -3 -3 1 -4 -4 -3 -2 -0 2 -1 0 0 0 0 0 0 0 0 -0 -0 -1 -1 -0 -0 0 1 1 0 -0 -1 -1 -1 -1 -1 -1 -1 -2 -1 -1
6 7 2 -1 -3 -3 2 1 -2 -3 -3 -1 1 -1 0 0 0 -0 -0 0 0 0 -0 -0 -0 -0 -1 -0 -0 0 0 -0 -0 -0 -0 -0 -1 -1 -1 -1 -1 -2 -5 -8
5 9 8 -1 -2 1 -0 1 -1 -0 -1 -0 1 1 0 0 -0 -0 -0 -0 -0 -0 -0 -0 -0 -1 -1 -1 -0 -1 -2 -2 -2 -2 -3 -4 -4 -7 -8 -8 -10 -8 -10 -10
4 3 1 -1 -2 -2 0 -1 -1 -1 -0 1 1 0 0 -0 -0 -1 -1 -1 -1 -0 -1 -1 -1 -2 -2 -1 -2 -2 -3 -6 -10 -13 -14 -15 -14 -12 -7 -6 -7 -7 -8 -6
4 0 1 0 -1 -1 -1 -1 -2 -1 1 1 0 0 -0 -0 -1 -1 -1 -1 -1 -2 -3 -3 -3 -3 -3 -3 -5 -9 -12 -13 -14 -15 -15 -14 -13 -15 -14 -17 -20 -15 -11 -10
3 1 1 1 0 -1 -1 -1 -1 -0 1 0 0 -0 -0 -1 -1 -1 -2 -2 -2 -3 -3 -3 -4 -5 -7 -9 -11 -13 -14 -15 -15 -16 -19 -22 -24 -29 -32 -29 -35 -34 -30 -27
5 0 0 -2 0 1 0 -0 -1 0 1 0 -0 -1 -1 -1 -1 -2 -2 -3 -3 -3 -4 -5 -7 -8 -10 -11 -13 -14 -15 -18 -22 -25 -27 -27 -25 -15 -28 -33 -33 -33 -31 -29
0 -0 1 -2 -3 1 1 0 0 0 0 0 -0 -1 -1 -1 -1 -2 -3 -3 -3 -4 -6 -7 -9 -10 -12 -13 -14 -18 -21 -24 -26 -29 -31 -32 -30 -25 -17 -14 -25 -27 -29 -28
-0 0 0 -1 0 -2 1 -0 -0 0 0 -0 -1 -1 -1 -1 -2 -3 -3 -3 -4 -6 -8 -8 -10 -12 -13 -16 -20 -23 -25 -27 -30 -33 -32 -31 -30 -29 -23 -20 -18 -14 -18 -25
1 0 1 1 -1 -0 -0 -1 -0 -0 -1 -1 -1 -1 -1 -2 -3 -3 -3 -5 -7 -8 -8 -10 -11 -14 -18 -21 -24 -26 -28 -31 -33 -33 -33 -32 -31 -29 -26 -22 -17 -17 -16 -16
1 1 1 1 1 0 0 0 -0 -0 -1 -1 -1 -1 -2 -2 -3 -4 -5 -7 -8 -9 -10 -11 -15 -19 -22 -24 -26 -28 -31 -33 -32 -32 -31 -30 -29 -28 -25 -21 -18 -16 -15 -15
1 1 1 1 0 0 0 -0 -0 -1 -1 -1 -1 -2 -3 -4 -6 -6 -7 -7 -8 -10 -13 -16 -19 -22 -24 -26 -28 -31 -31 -31 -31 -30 -30 -29 -28 -27 -25 -22 -19 -18 -16 -17
2 1 1 1 0 0 -0 -0 -1 -1 -2 -2 -3 -3 -5 -5 -5 -5 -6 -6 -7 -12 -17 -19 -21 -23 -25 -27 -30 -31 -30 -30 -29 -28 -28 -27 -27 -26 -24 -23 -21 -20 -18 -19
1 1 1 0 -0 -0 -0 -1 -2 -2 -3 -3 -3 -4 -4 -4 -5 -5 -5 -6 -11 -16 -19 -21 -23 -25 -26 -28 -29 -29 -29 -28 -27 -26 -26 -26 -25 -24 -23 -22 -22 -22 -21 -20
2 2 1 0 -0 -1 -2 -3 -2 -3 -3 -3 -3 -4 -5 -5 -5 -6 -7 -10 -14 -18 -20 -21 -23 -25 -27 -28 -28 -28 -28 -26 -26 -25 -25 -24 -24 -23 -22 -22 -22 -22 -22 -20
-2 -2 -2 -1 -2 -3 -2 -2 -3 -4 -4 -4 -4 -5 -5 -6 -7 -8 -9 -16 -18 -19 -21 -22 -23 -24 -25 -27 -27 -26 -25 -25 -24 -24 -24 -23 -23 -22 -22 -21 -22 -23 -22 -21
-4 -3 -3 -3 -3 -4 -4 -4 -4 -4 -5 -5 -5 -6 -6 -7 -8 -10 -12 -14 -18 -20 -20 -21 -22 -24 -26 -26 -25 -24 -23 -23 -23 -23 -22 -22 -22 -22 -22 -22 -23 -23 -23 -22
-4 -4 -4 -4 -4 -5 -5 -5 -5 -5 -6 -7 -7 -8 -8 -9 -11 -13 -16 -18 -18 -18 -19 -20 -22 -23 -24 -24 -22 -22 -22 -22 -22 -22 -22 -21 -21 -21 -22 -23 -24 -24 -25 -26
-5 -5 -5 -5 -5 -5 -6 -7 -7 -8 -8 -9 -10 -13 -14 -15 -16 -18 -18 -17 -17 -16 -18 -21 -21 -22 -22 -22 -21 -21 -21 -20 -21 -21 -20 -21 -21 -21 -23 -23 -24 -26 -27 -27
-7 -7 -7 -7 -7 -9 -9 -9 -10 -10 -10 -10 -10 -11 -11 -12 -12 -12 -13 -13 -14 -15 -18 -20 -20 -21 -21 -21 -21 -21 -21 -20 -21 -21 -21 -21 -21 -22 -24 -24 -26 -26 -26 -25
-8 -8 -9 -9 -10 -10 -10 -10 -10 -11 -11 -11 -12 -12 -12 -13 -13 -14 -14 -15 -15 -17 -18 -20 -20 -21 -21 -21 -21 -21 -21 -21 -22 -22 -22 -21 -22 -24 -25 -25 -26 -26 -25 -25
-9 -10 -10 -10 -11 -11 -11 -11 -11 -12 -12 -13 -13 -13 -13 -14 -15 -15 -16 -17 -17 -18 -19 -19 -20 -20 -21 -21 -21 -22 -22 -23 -23 -22 -22 -23 -25 -26 -26 -26 -26 -26 -25 -25

GFSNGP_850_dewp_033.txt.gz
Dewpoint
-3 -5 -6 -6 -5 -4 -2 -2 2 -0 -2 -6 -7 -6 -8 -3 -3 -3 -2 1 2 4 7 8 9 9 10 10 10 9 9 9 10 9 9 8 8 7 6 6 6 6 6 4
-3 -5 -7 -6 -7 -6 -5 -4 -4 -3 -3 -8 -8 -7 -6 -5 -3 -2 1 3 5 7 8 8 9 9 9 8 8 7 7 7 7 7 6 6 6 5 6 5 5 4 3 2
3 -3 -4 1 -4 -5 -6 -7 -6 -3 -5 -8 -8 -6 -5 -5 -2 -0 2 3 4 4 5 5 5 5 6 5 5 5 5 5 5 4 4 4 4 4 3 2 0 -1 -1 -2
4 7 7 -1 -5 -5 -4 -5 -7 -7 -8 -7 -6 -5 -4 -4 -1 1 2 3 3 3 3 3 3 3 3 3 3 3 3 3 3 3 3 2 2 2 1 0 -1 -2 -3 -4
7 5 -0 -3 -4 -3 -3 -4 -6 -6 -6 -5 -5 -2 -1 -1 0 1 1 1 2 2 2 2 2 2 1 1 1 2 2 2 2 2 2 1 1 1 0 0 0 0 -0 -1
6 6 6 -0 -4 -5 -5 1 -6 -6 -5 -4 -3 2 -2 -0 0 1 1 1 1 2 2 1 1 1 1 1 1 1 2 2 1 1 1 1 0 0 1 -0 -0 -1 -2 -2
8 6 2 -3 -5 -5 3 1 -5 -5 -4 -5 -3 -1 -0 0 1 1 1 1 1 1 1 1 1 1 1 1 1 1 1 1 1 1 0 0 -1 -1 -2 -3 -4 -4 -4 -3
7 7 8 -4 -2 -0 -2 -4 -2 -2 -4 -4 -3 1 1 1 1 0 0 1 1 1 1 1 1 1 1 1 1 1 -0 -1 -1 -2 -4 -3 -3 -4 -6 -5 -5 -4 -4 -4
3 3 1 -1 -3 -3 -5 -3 -0 -2 -3 -3 2 1 1 1 0 0 0 0 1 1 1 1 1 1 0 0 -0 -1 -2 -4 -5 -6 -6 -6 -6 -6 -7 -6 -6 -6 -9 -8
3 2 -0 -0 -1 -3 -1 -1 -1 -1 -2 -0 2 1 1 0 0 0 -0 0 0 1 0 0 -0 -1 -1 -2 -3 -3 -4 -5 -6 -7 -8 -9 -10 -12 -11 -10 -15 -15 -11 -10
2 -1 -0 0 1 -0 -1 -0 -1 -1 -1 0 1 1 0 0 0 -0 -0 -0 -0 -1 -1 -2 -2 -3 -3 -4 -5 -6 -7 -8 -10 -13 -12 -12 -15 -18 -23 -28 -35 -36 -29 -30
5 -1 2 1 -0 -0 0 0 0 -1 -0 1 0 0 0 0 -0 -1 -1 -1 -1 -1 -2 -3 -3 -4 -5 -6 -7 -8 -10 -11 -14 -17 -16 -14 -14 -15 -22 -26 -31 -34 -34 -33
1 1 2 1 1 -0 -0 -0 0 -0 0 0 0 0 -0 -0 -0 -1 -1 -2 -2 -2 -3 -5 -6 -7 -8 -8 -9 -10 -11 -18 -24 -20 -17 -18 -19 -16 -13 -13 -22 -22 -23 -27
0 2 2 -0 -0 1 1 1 0 0 0 0 0 -0 -0 -0 -1 -1 -2 -2 -3 -4 -5 -6 -8 -9 -10 -13 -16 -19 -21 -23 -16 -15 -19 -23 -17 -21 -15 -13 -12 -11 -12 -14
3 3 2 2 1 1 1 1 1 0 1 1 0 -0 -0 -0 -1 -2 -2 -3 -4 -6 -8 -9 -10 -12 -14 -16 -16 -19 -17 -18 -25 -29 -33 -33 -30 -23 -18 -14 -13 -13 -13 -14
3 2 2 2 1 1 1 0 0 1 1 0 0 -0 -0 -1 -2 -2 -4 -5 -7 -8 -10 -11 -13 -15 -19 -20 -21 -24 -27 -31 -32 -28 -26 -25 -22 -19 -15 -14 -13 -13 -13 -13
3 3 2 2 2 1 1 1 0 0 0 0 0 -1 -1 -2 -4 -5 -6 -7 -8 -9 -11 -15 -14 -14 -23 -22 -19 -20 -21 -30 -32 -28 -24 -25 -26 -23 -20 -16 -14 -14 -14 -14
2 2 2 2 2 1 1 1 1 0 0 -0 -1 -2 -3 -4 -6 -6 -7 -7 -7 -6 -6 -7 -8 -12 -20 -24 -26 -28 -30 -30 -29 -28 -27 -25 -26 -25 -20 -15 -15 -15 -15 -15
2 2 1 1 1 1 1 0 0 -0 -1 -1 -2 -3 -4 -5 -6 -6 -6 -6 -6 -7 -8 -10 -14 -21 -24 -26 -28 -29 -29 -29 -27 -26 -26 -25 -20 -17 -16 -15 -16 -16 -16 -16
-0 -1 -0 -1 -0 -0 -1 -2 -2 -3 -3 -3 -4 -5 -6 -6 -6 -6 -7 -8 -8 -8 -10 -17 -22 -21 -24 -26 -27 -28 -28 -27 -25 -23 -21 -23 -17 -17 -16 -17 -17 -17 -17 -17
-4 -4 -4 -4 -5 -4 -4 -4 -4 -5 -5 -5 -5 -6 -7 -7 -7 -8 -8 -8 -10 -11 -12 -12 -18 -22 -24 -26 -26 -26 -26 -24 -20 -18 -17 -17 -17 -17 -17 -18 -18 -18 -18 -19
-6 -6 -6 -6 -6 -6 -6 -5 -5 -5 -5 -5 -6 -7 -7 -8 -9 -9 -10 -9 -10 -11 -14 -19 -21 -23 -24 -26 -25 -23 -19 -17 -17 -17 -17 -18 -18 -18 -19 -19 -19 -19 -20 -20
-6 -6 -6 -6 -6 -6 -6 -6 -6 -6 -7 -7 -8 -8 -9 -10 -10 -11 -11 -12 -15 -18 -18 -18 -17 -18 -23 -24 -21 -18 -17 -18 -18 -18 -19 -19 -19 -20 -20 -20 -21 -21 -21 -21
-7 -7 -7 -7 -7 -7 -8 -8 -8 -8 -8 -9 -9 -9 -10 -10 -11 -11 -12 -13 -13 -13 -13 -14 -16 -19 -22 -21 -18 -18 -18 -18 -19 -19 -19 -20 -20 -20 -21 -21 -22 -22 -22 -22
-9 -9 -8 -8 -9 -10 -10 -10 -10 -10 -10 -10 -11 -11 -11 -11 -12 -12 -13 -13 -14 -15 -16 -16 -19 -20 -20 -18 -19 -19 -19 -20 -20 -20 -21 -21 -21 -21 -22 -22 -22 -23 -23 -23
-10 -10 -10 -11 -10 -11 -11 -11 -11 -11 -11 -12 -12 -12 -13 -13 -13 -14 -14 -15 -16 -17 -17 -18 -18 -19 -19 -19 -19 -20 -20 -20 -21 -21 -21 -22 -22 -22 -22 -23 -23 -24 -24 -24
-11 -11 -11 -12 -12 -12 -12 -12 -13 -13 -13 -13 -13 -14 -14 -15 -15 -16 -16 -17 -17 -18 -18 -18 -19 -19 -20 -21 -21 -21 -21 -21 -22 -22 -23 -23 -23 -23 -24 -24 -24 -24 -25 -26

GFSNGP_850_dewp_036.txt.gz
Dewpoint
-1 -3 -3 -3 -3 -4 -3 4 5 4 4 1 -1 -2 -2 -4 -3 -5 -5 -4 -2 3 6 7 8 9 9 10 10 10 10 10 11 10 10 9 9 8 7 7 7 7 6 6
2 -1 -4 -2 -4 -5 -4 -4 -4 -3 -2 -5 -4 -3 -1 -3 -4 -3 -3 -2 0 2 7 8 9 9 10 10 10 10 10 9 9 9 8 7 7 6 6 6 5 5 5 4
5 1 -1 1 -2 -4 -5 -5 -4 -1 -2 -5 -5 -6 -7 -4 -6 -4 -2 1 4 6 8 9 9 9 9 9 8 8 7 7 6 6 6 6 5 5 5 4 3 2 1 0
6 6 6 -1 -5 -6 -5 -6 -5 -6 -7 -7 -7 -8 -6 -5 -4 -2 1 3 5 6 6 7 7 6 6 6 5 5 4 4 4 4 3 3 3 3 3 1 0 -1 -2 -3
7 6 1 -3 -3 -3 -2 -2 -5 -5 -6 -7 -9 -9 -2 -3 -3 -0 2 3 4 4 4 4 4 4 4 3 3 3 3 3 2 2 2 2 1 0 -0 -1 -1 -0 -0 -1
7 7 7 2 -1 -5 -5 1 -4 -5 -4 -5 -5 4 0 -1 -0 1 2 3 3 3 3 2 2 2 2 2 2 1 2 2 2 2 2 2 1 0 0 0 -0 -1 -1 -1
8 7 5 -0 -3 -5 2 2 -3 -4 -5 -4 0 -0 -2 -1 1 1 2 2 2 2 2 2 2 1 1 1 1 1 1 1 1 2 1 -0 -1 -1 -1 -2 -2 -2 -4 -4
8 7 7 -1 -3 0 1 -2 -3 -4 -3 -4 -4 -2 -1 0 1 1 1 2 2 1 2 2 2 1 1 1 1 1 1 1 0 -0 -1 -3 -5 -5 -3 -4 -3 -4 -4 -3
7 6 3 -3 -1 -2 -3 -2 -3 -2 -2 -3 -1 1 1 1 1 1 1 1 1 1 2 2 1 1 1 1 1 -0 -0 -1 -2 -4 -4 -5 -5 -6 -6 -5 -4 -4 -7 -9
3 3 4 1 0 -1 -2 -2 -2 -2 -1 -2 1 1 1 1 1 1 1 1 1 1 1 1 1 1 1 1 0 -1 -3 -4 -5 -6 -7 -8 -9 -9 -8 -10 -12 -15 -17 -15
3 1 -0 -1 -2 -0 1 0 -0 -1 -1 -1 0 2 1 1 1 1 0 1 1 1 1 1 0 0 -1 -2 -3 -3 -4 -6 -7 -9 -11 -12 -13 -15 -18 -20 -26 -32 -31 -30
4 0 3 2 0 1 1 0 1 0 -1 -1 1 2 1 1 1 0 0 0 1 1 0 -1 -1 -2 -3 -4 -5 -6 -7 -8 -11 -13 -13 -13 -16 -17 -20 -22 -27 -30 -33 -32
0 0 1 0 1 2 1 -0 1 1 0 -0 2 1 1 1 0 0 -0 0 -0 -1 -2 -2 -3 -5 -5 -6 -7 -8 -9 -11 -13 -16 -16 -16 -16 -14 -13 -14 -15 -21 -25 -25
-0 -1 0 -1 2 2 2 0 0 0 0 0 1 1 1 0 0 -0 -0 -1 -1 -2 -3 -5 -6 -7 -7 -7 -8 -9 -13 -14 -15 -15 -18 -20 -19 -19 -20 -16 -15 -14 -13 -14
1 3 3 3 2 1 1 1 1 1 0 1 1 0 0 0 -0 -1 -1 -1 -2 -4 -6 -7 -8 -10 -11 -13 -15 -17 -19 -19 -20 -22 -26 -29 -30 -29 -25 -20 -16 -14 -14 -12
3 3 3 2 2 1 1 1 1 1 1 1 1 0 0 -0 -1 -1 -2 -3 -5 -7 -9 -10 -11 -13 -14 -17 -20 -22 -23 -25 -21 -25 -29 -28 -25 -25 -21 -19 -17 -15 -14 -13
3 3 3 3 3 2 1 1 1 1 1 1 0 0 -0 -1 -2 -3 -4 -6 -8 -9 -9 -11 -14 -16 -14 -8 -7 -7 -6 -10 -27 -29 -25 -25 -26 -26 -24 -22 -18 -16 -16 -15
2 2 2 2 2 2 1 1 1 1 1 0 -0 -1 -2 -2 -3 -5 -6 -7 -8 -11 -12 -8 -6 -6 -7 -7 -8 -11 -22 -27 -28 -29 -28 -27 -27 -25 -24 -21 -18 -15 -15 -15
1 1 1 1 1 1 1 1 1 0 -0 -1 -1 -2 -3 -4 -5 -6 -7 -7 -7 -8 -9 -8 -7 -8 -9 -12 -19 -19 -20 -23 -27 -27 -26 -26 -24 -19 -18 -17 -16 -17 -17 -16
-2 -2 -1 -1 -1 -0 -1 -2 -2 -2 -2 -2 -3 -5 -5 -6 -7 -7 -8 -8 -9 -8 -9 -9 -9 -10 -10 -10 -14 -22 -27 -27 -26 -23 -20 -20 -20 -17 -18 -17 -16 -16 -17 -17
-6 -5 -5 -5 -5 -5 -5 -5 -5 -5 -6 -5 -5 -7 -7 -8 -8 -8 -8 -8 -10 -10 -10 -10 -10 -11 -17 -23 -24 -23 -23 -23 -21 -18 -18 -17 -16 -16 -17 -17 -17 -17 -18 -18
-7 -7 -7 -7 -7 -7 -7 -6 -6 -7 -7 -7 -7 -8 -9 -9 -9 -9 -9 -9 -10 -11 -11 -11 -13 -13 -13 -14 -17 -19 -18 -17 -17 -18 -17 -17 -17 -17 -18 -18 -18 -19 -19 -20
-8 -8 -7 -7 -8 -8 -7 -7 -7 -8 -8 -9 -9 -9 -9 -10 -10 -10 -10 -11 -12 -13 -12 -13 -13 -14 -16 -18 -18 -18 -16 -17 -17 -17 -17 -18 -18 -18 -19 -19 -20 -20 -21 -21
-8 -8 -8 -8 -8 -8 -9 -9 -9 -9 -9 -9 -10 -10 -10 -10 -11 -12 -12 -13 -13 -14 -14 -15 -15 -17 -20 -20 -17 -17 -18 -18 -18 -18 -18 -19 -19 -19 -20 -20 -21 -21 -21 -22
-9 -9 -9 -10 -10 -10 -10 -10 -10 -11 -11 -11 -11 -11 -12 -12 -12 -13 -13 -14 -14 -15 -15 -16 -18 -20 -18 -18 -18 -18 -19 -19 -19 -20 -20 -20 -21 -21 -21 -21 -21 -22 -22 -23
-10 -11 -11 -11 -11 -11 -11 -11 -11 -11 -12 -12 -13 -13 -13 -14 -14 -15 -15 -16 -16 -17 -17 -17 -18 -19 -19 -19 -19 -20 -20 -20 -20 -20 -21 -21 -22 -22 -22 -22 -22 -23 -23 -24
-12 -12 -12 -13 -13 -13 -13 -13 -13 -13 -13 -13 -14 -14 -15 -15 -15 -16 -16 -16 -17 -17 -18 -18 -19 -19 -19 -20 -20 -21 -21 -21 -21 -22 -22 -23 -23 -23 -24 -24 -24 -24 -24 -24

GFSNGP_850_dewp_039.txt.gz
Dewpoint
-3 -2 -1 -0 -0 0 -1 1 4 4 4 2 1 -1 -2 -4 -4 -4 -4 -5 1 3 3 4 5 6 7 8 9 10 9 10 10 10 11 11 10 10 9 9 8 7 7 7
2 -2 -2 -1 0 -0 -2 -2 2 2 2 -0 -1 -2 0 -3 -4 -3 -3 -4 -3 2 6 6 7 8 8 9 9 9 9 9 10 11 11 10 9 9 7 7 6 6 6 6
3 1 0 2 1 -1 -1 -2 -2 3 1 -2 -2 -1 -1 -2 -4 -3 -3 -3 -1 4 6 7 7 8 9 10 10 10 10 10 10 9 9 8 5 4 5 5 5 5 5 4
5 4 6 0 -2 -2 -2 -3 -4 -5 -5 -5 -5 -6 -4 -4 -4 -3 -2 -0 1 5 8 8 9 9 9 10 10 10 9 9 9 8 6 4 5 5 5 5 4 2 1 0
6 5 4 3 -2 -2 -2 -2 -4 -4 -5 -6 -7 -7 -2 -4 -4 -4 -2 1 3 7 8 9 9 10 10 9 8 8 8 6 4 3 3 3 3 3 3 2 1 -1 -2 -3
7 6 7 3 -0 -4 -3 1 -4 -3 -3 -3 -4 -1 -0 -3 -3 -1 0 2 4 6 7 8 8 8 7 6 5 4 3 3 2 2 2 1 2 1 0 -1 -1 -1 -1 -1
6 7 5 1 -2 -3 2 2 -2 -4 -3 -2 -1 0 -2 -1 -1 -0 1 3 4 5 5 5 5 5 4 4 3 3 2 1 1 1 1 1 1 0 -0 -0 -1 -1 -1 -1
7 7 7 2 0 1 -0 -4 -4 -4 -3 -3 -3 -3 -1 -1 -0 1 2 3 3 3 4 3 3 3 2 2 2 2 2 1 1 1 1 1 -1 -1 -3 -2 -2 -4 -4 -4
7 6 4 0 3 3 3 3 1 -3 -4 -2 -1 -2 -1 -0 1 2 2 2 2 2 2 2 2 2 1 1 2 1 1 1 1 1 -1 -4 -5 -3 -3 -4 -6 -6 -4 -4
2 1 2 0 0 1 4 5 3 0 -2 -0 -1 -2 -1 0 1 2 2 2 2 2 2 2 2 2 1 1 1 1 1 0 -2 -3 -4 -4 -5 -5 -5 -5 -5 -4 -4 -7
4 1 1 1 1 1 0 4 3 2 1 -0 -0 -1 -1 0 1 1 1 2 1 2 2 2 1 1 1 1 1 0 -1 -3 -5 -5 -5 -5 -5 -7 -7 -7 -9 -13 -16 -17
5 2 3 2 1 2 2 5 3 3 2 0 0 1 1 1 1 1 1 1 1 2 1 1 1 1 1 0 -1 -2 -4 -5 -6 -7 -9 -10 -11 -14 -17 -20 -23 -28 -32 -34
0 0 -1 -2 -0 2 1 2 2 2 2 1 1 1 1 1 1 1 1 1 1 1 1 0 -0 -1 -2 -3 -3 -4 -5 -6 -9 -11 -12 -13 -14 -16 -16 -16 -15 -19 -21 -23
1 2 1 3 2 2 2 1 1 1 1 0 1 2 2 1 1 0 1 1 1 0 -1 -1 -3 -4 -5 -5 -6 -7 -7 -8 -11 -13 -14 -14 -15 -16 -17 -17 -17 -19 -19 -17
3 3 3 2 2 2 1 1 1 1 1 1 1 1 1 1 1 0 0 0 -1 -2 -3 -4 -5 -7 -8 -8 -8 -9 -12 -14 -14 -15 -18 -21 -22 -25 -26 -25 -23 -19 -15 -14
3 3 3 3 3 2 1 1 1 2 2 1 1 1 1 0 -0 -1 -2 -2 -2 -5 -7 -7 -7 -9 -10 -10 -12 -13 -16 -19 -18 -12 -9 -8 -9 -15 -24 -23 -20 -18 -15 -14
1 1 2 2 2 2 1 1 1 1 1 1 -0 -0 -0 -0 -1 -3 -5 -5 -6 -8 -9 -8 -10 -11 -13 -17 -18 -10 -7 -7 -7 -8 -10 -12 -13 -13 -16 -21 -24 -20 -17 -16
-1 -0 1 1 1 1 1 0 1 0 0 -1 -2 -2 -2 -3 -5 -7 -7 -7 -7 -6 -7 -7 -8 -8 -7 -7 -7 -8 -8 -9 -10 -11 -10 -10 -12 -19 -24 -24 -21 -19 -16 -15
-2 -2 -1 -0 -0 0 0 -0 -1 -1 -2 -2 -2 -3 -4 -4 -5 -6 -6 -5 -6 -7 -9 -9 -9 -8 -8 -8 -8 -9 -10 -10 -11 -12 -13 -15 -19 -22 -19 -17 -17 -17 -16 -17
-5 -4 -4 -4 -3 -3 -4 -4 -4 -4 -4 -4 -4 -5 -6 -6 -6 -6 -7 -8 -8 -9 -9 -9 -9 -9 -10 -10 -10 -11 -12 -13 -14 -14 -16 -18 -18 -17 -16 -17 -16 -16 -17 -17
-7 -7 -7 -6 -7 -6 -6 -6 -5 -6 -6 -6 -6 -7 -8 -8 -8 -8 -8 -9 -10 -10 -10 -10 -10 -11 -11 -12 -12 -13 -13 -14 -15 -16 -17 -17 -16 -16 -17 -17 -17 -17 -18 -18
-8 -8 -8 -8 -8 -8 -8 -8 -8 -8 -8 -8 -8 -8 -8 -9 -9 -9 -10 -10 -12 -11 -12 -12 -12 -13 -13 -14 -14 -15 -17 -17 -17 -17 -17 -17 -18 -18 -18 -18 -19 -19 -19 -20
-9 -9 -8 -8 -8 -9 -8 -8 -8 -8 -9 -9 -9 -9 -9 -10 -10 -10 -12 -13 -13 -13 -13 -13 -14 -15 -17 -19 -18 -18 -18 -18 -18 -18 -18 -18 -18 -19 -19 -20 -20 -20 -21 -21
-9 -9 -9 -9 -9 -10 -10 -10 -10 -10 -10 -10 -11 -11 -11 -11 -12 -13 -13 -14 -14 -14 -15 -16 -19 -20 -20 -19 -19 -19 -19 -19 -19 -19 -20 -20 -20 -20 -21 -21 -21 -22 -22 -22
-10 -10 -10 -10 -11 -11 -11 -11 -11 -12 -12 -12 -12 -12 -13 -13 -14 -14 -15 -15 -16 -16 -17 -18 -19 -20 -20 -20 -20 -20 -20 -20 -20 -20 -21 -21 -21 -21 -22 -22 -23 -23 -23 -23
-11 -12 -11 -11 -11 -11 -11 -12 -12 -13 -13 -13 -14 -15 -15 -15 -16 -15 -16 -17 -17 -17 -18 -18 -19 -19 -19 -20 -21 -21 -21 -21 -21 -21 -22 -22 -22 -23 -23 -23 -23 -23 -24 -24
-12 -13 -13 -14 -15 -16 -15 -14 -14 -14 -14 -14 -15 -15 -15 -16 -16 -16 -17 -17 -18 -18 -18 -20 -19 -20 -20 -21 -21 -21 -22 -22 -23 -23 -23 -24 -24 -24 -25 -25 -25 -25 -25 -25

GFSNGP_850_dewp_042.txt.gz
Dewpoint
6 3 -2 -2 -1 -0 -0 1 3 1 3 1 -0 0 -0 -2 -3 -4 -4 -1 -1 -1 -1 2 -0 1 3 4 6 7 7 7 8 7 6 8 9 9 9 9 10 9 9 8
5 3 1 -1 -3 -1 -1 0 0 -0 1 0 -1 -1 -1 -2 -3 -3 -4 -5 -4 1 -0 1 1 1 1 5 7 9 8 9 9 9 9 8 8 10 10 9 9 8 7 7
6 4 2 2 -1 -2 0 -1 -0 2 1 -1 -0 -0 -0 -1 -2 -3 -4 -5 -4 0 1 3 3 2 4 6 8 9 9 10 10 10 9 10 10 9 8 8 7 6 6 5
6 5 8 2 -3 -4 -1 -2 -2 -3 -4 -2 -2 -2 -2 -2 -2 -3 -3 -4 -4 -3 0 3 4 6 7 9 10 10 10 10 10 10 10 9 9 8 8 6 4 5 5 5
6 7 5 2 0 -1 -0 -1 -3 -3 -4 -5 -6 -5 -4 -6 -2 -5 -5 -4 -4 -3 -3 4 7 8 8 9 10 10 10 10 9 9 8 7 6 5 5 5 5 3 2 2
5 5 8 3 -0 -2 -2 2 -3 -4 -3 -3 -4 -2 -3 -5 -5 -4 -5 -4 -2 -1 4 6 7 8 9 9 9 9 9 9 8 7 6 5 4 3 3 3 1 0 -1 -2
5 5 6 4 2 -1 4 2 -0 -3 -3 -3 -2 -2 -6 -5 -4 -4 -4 -1 1 2 5 8 9 9 9 9 9 8 7 7 5 4 2 1 1 1 1 -0 -1 -1 -1 -2
5 6 7 4 3 5 4 4 5 4 -0 -2 -3 -3 -4 -3 -2 -1 -1 1 2 4 7 8 9 9 8 7 6 6 4 3 2 1 1 1 0 0 -0 -1 -2 -2 -1 -1
4 3 3 3 3 3 5 5 5 4 4 2 -1 -3 -2 -2 -2 -2 -1 1 3 4 6 6 6 6 5 5 4 3 2 1 1 1 1 1 0 -0 -1 -0 -1 -1 -1 -1
5 2 2 1 2 1 1 1 3 2 3 2 2 -0 -2 -1 -0 0 2 2 3 4 4 4 4 3 3 3 2 2 2 2 1 1 1 1 0 -2 -3 -3 -4 -5 -5 -5
3 2 1 0 -3 -1 -2 -0 0 1 2 3 2 2 2 0 1 2 3 3 3 3 3 2 2 2 2 2 1 2 2 2 1 0 -2 -3 -3 -2 -2 -3 -4 -4 -4 -5
3 -1 -2 -3 -5 -4 -1 -0 3 1 2 1 2 2 2 2 2 2 2 2 2 2 2 2 2 2 2 1 1 1 1 0 -1 -2 -3 -4 -5 -5 -5 -6 -7 -8 -9 -10
3 3 2 1 0 2 2 1 -0 -1 0 1 2 2 2 2 2 2 2 2 2 2 2 2 1 1 1 1 1 1 -1 -4 -6 -6 -7 -8 -9 -11 -14 -17 -19 -20 -22 -23
3 3 3 2 2 2 1 1 1 2 1 1 0 1 2 3 3 1 2 2 2 1 1 1 1 0 -1 -1 -1 -3 -5 -7 -8 -9 -11 -12 -13 -14 -16 -16 -17 -16 -13 -12
2 2 2 3 2 1 1 1 1 1 1 1 2 2 2 1 1 1 1 1 1 0 -1 -2 -2 -4 -5 -5 -5 -6 -7 -9 -10 -11 -13 -14 -16 -14 -12 -10 -8 -9 -11 -13
1 2 2 2 1 1 1 1 1 1 1 1 1 1 0 -0 -0 -1 -2 -3 -1 -4 -6 -6 -6 -8 -7 -6 -6 -6 -6 -6 -9 -12 -9 -8 -9 -8 -9 -10 -11 -11 -12 -12
-0 -1 0 0 0 -0 -0 -0 -1 -1 -1 -1 -2 -3 -3 -3 -4 -5 -5 -6 -6 -6 -7 -6 -6 -6 -5 -5 -6 -7 -8 -8 -7 -8 -8 -9 -9 -10 -11 -11 -12 -12 -13 -13
-3 -3 -2 -1 -2 -1 -2 -2 -2 -2 -3 -3 -4 -3 -4 -5 -7 -8 -8 -7 -6 -6 -6 -7 -7 -8 -8 -8 -8 -8 -8 -8 -9 -9 -10 -10 -11 -11 -12 -13 -14 -14 -14 -15
-5 -5 -5 -4 -4 -4 -4 -4 -4 -5 -5 -4 -4 -5 -6 -7 -6 -6 -6 -6 -7 -8 -9 -9 -8 -8 -8 -8 -9 -9 -9 -10 -10 -11 -12 -12 -13 -14 -14 -15 -15 -15 -16 -16
-7 -7 -6 -6 -6 -6 -7 -7 -6 -6 -6 -5 -6 -6 -7 -7 -7 -7 -7 -9 -10 -10 -10 -10 -9 -9 -9 -10 -10 -11 -11 -12 -13 -14 -14 -15 -15 -16 -16 -17 -16 -16 -17 -17
-9 -8 -8 -8 -8 -8 -7 -7 -6 -7 -7 -7 -7 -8 -8 -9 -8 -8 -9 -11 -12 -11 -11 -11 -11 -11 -11 -12 -12 -13 -13 -14 -14 -15 -17 -18 -17 -17 -17 -18 -18 -18 -19 -19
-9 -9 -9 -9 -9 -9 -9 -8 -8 -8 -8 -8 -9 -9 -9 -10 -10 -10 -11 -12 -13 -12 -12 -12 -13 -13 -13 -14 -14 -16 -18 -18 -19 -19 -18 -18 -18 -18 -18 -19 -19 -20 -20 -20
-10 -10 -10 -10 -10 -10 -9 -9 -9 -9 -10 -10 -10 -10 -11 -11 -11 -12 -13 -14 -13 -13 -13 -14 -15 -17 -19 -20 -20 -20 -20 -20 -20 -19 -19 -20 -20 -20 -20 -21 -21 -21 -21 -22
-10 -11 -11 -10 -11 -11 -11 -11 -11 -11 -11 -11 -12 -12 -12 -12 -13 -14 -14 -14 -15 -16 -18 -20 -20 -21 -20 -20 -21 -21 -21 -20 -20 -20 -20 -21 -21 -21 -22 -23 -23 -23 -23 -23
-10 -10 -10 -11 -12 -12 -12 -12 -12 -12 -13 -13 -14 -14 -15 -15 -16 -16 -17 -17 -18 -18 -19 -19 -20 -20 -21 -22 -22 -23 -22 -22 -22 -23 -23 -23 -23 -23 -24 -24 -24 -24 -24 -24
-11 -12 -12 -12 -12 -12 -13 -13 -13 -14 -15 -15 -15 -16 -16 -16 -16 -17 -17 -17 -18 -18 -19 -20 -20 -20 -21 -21 -22 -22 -22 -22 -23 -23 -24 -24 -24 -24 -24 -25 -25 -25 -25 -25
-13 -15 -16 -17 -16 -15 -14 -14 -15 -15 -15 -16 -16 -16 -16 -17 -17 -18 -18 -18 -19 -19 -20 -21 -21 -21 -22 -23 -24 -24 -24 -24 -24 -24 -24 -24 -24 -25 -25 -26 -26 -26 -25 -24

GFSNGP_850_dewp_045.txt.gz
Dewpoint
6 3 3 3 4 3 -0 -1 1 0 2 -0 -0 -1 -2 -2 -3 -4 -6 -5 -1 -0 -2 -2 -0 1 3 3 4 5 6 7 8 8 9 9 9 9 8 10 10 9 8 8
5 2 2 3 2 2 1 -1 0 -1 0 -1 -1 -1 -1 -2 -2 -3 -4 -5 -1 0 -1 -1 -0 -1 -1 2 2 4 5 5 7 8 9 9 9 8 8 10 10 10 9 9
4 3 2 1 3 1 0 -2 -0 1 -0 -2 -0 0 -1 -2 -2 -2 -3 -3 -4 -3 -1 0 -1 -1 -1 -0 -0 2 5 6 7 8 9 9 9 8 8 9 10 10 9 9
5 4 3 -4 -0 -3 1 -1 -3 -2 -2 -1 -2 -3 -4 -4 -2 -1 -1 -2 -3 -4 -4 -2 1 2 1 2 2 4 7 8 8 9 9 9 9 10 10 9 9 9 8 7
4 5 2 -2 -1 1 4 5 1 -2 -3 -4 -5 -5 -5 -6 -4 -3 -6 -5 -4 -3 -4 -4 1 3 3 5 5 6 8 8 8 9 10 10 10 10 9 9 8 7 6 5
5 4 3 -7 -1 0 3 6 1 4 0 -2 -4 -1 -3 -6 -7 -7 -7 -4 -5 -3 -3 -4 -0 4 6 7 7 8 9 9 9 8 10 10 10 9 8 7 6 4 4 4
5 5 3 1 1 2 7 5 4 5 5 3 -1 -3 -5 -5 -6 -7 -6 -5 -5 -4 -4 -2 2 5 7 8 9 9 10 10 10 10 9 9 8 7 6 5 4 3 1 1
4 6 5 0 5 5 5 3 5 5 4 4 2 1 -3 -4 -5 -6 -6 -5 -3 -2 -0 3 5 7 8 9 9 9 9 9 9 8 7 6 6 5 4 3 1 0 -1 -1
3 3 1 3 4 1 1 3 4 4 3 4 2 1 -0 -1 -2 -3 -3 -3 -1 0 3 5 7 8 9 9 9 8 7 6 5 4 3 2 2 1 0 -1 -1 -1 -1 -1
3 0 0 -1 0 1 2 2 2 2 2 3 3 2 1 0 1 3 3 1 2 4 6 7 8 9 8 8 7 6 5 4 3 2 1 1 0 -0 -0 -0 -1 -1 -1 -2
1 1 1 -1 -1 -1 1 2 1 1 2 2 3 2 2 2 1 2 3 4 5 6 7 7 7 6 6 5 4 4 3 2 2 1 1 0 -0 -0 -1 -1 -1 -2 -2 -2
3 4 4 2 2 2 1 1 -1 2 -0 0 1 1 2 2 2 2 2 3 4 5 5 5 4 4 3 3 3 2 2 2 2 1 0 -0 -1 -2 -2 -3 -3 -4 -4 -4
3 2 3 3 3 2 2 2 3 4 3 2 -0 1 3 3 2 2 2 3 3 3 3 3 2 2 2 2 2 2 2 1 0 -1 -2 -3 -3 -3 -4 -6 -7 -8 -10 -11
1 2 3 3 2 1 1 1 1 1 2 2 1 2 2 3 2 2 3 2 2 2 2 2 2 2 2 1 1 1 0 -1 -2 -4 -6 -7 -10 -12 -11 -12 -15 -16 -13 -12
1 1 1 1 1 1 1 1 1 1 1 1 1 2 2 2 2 0 -0 -0 1 2 1 0 0 -1 -2 -2 -2 -4 -7 -9 -9 -9 -8 -6 -6 -7 -10 -10 -8 -8 -9 -10
0 1 1 1 0 -0 -0 -1 -1 -2 -1 -1 -1 -1 -1 -2 -1 -2 -3 -3 -2 -3 -3 -3 -4 -7 -7 -6 -5 -5 -4 -5 -5 -6 -7 -7 -8 -8 -8 -9 -9 -10 -11 -12
-2 -1 -2 -2 -2 -2 -4 -4 -4 -4 -4 -3 -4 -4 -4 -5 -5 -5 -5 -5 -5 -6 -6 -6 -6 -5 -5 -5 -5 -5 -6 -7 -8 -8 -8 -8 -9 -9 -10 -11 -12 -12 -13 -13
-5 -4 -4 -4 -5 -5 -5 -6 -5 -6 -6 -7 -6 -5 -5 -5 -6 -7 -7 -6 -6 -6 -7 -7 -7 -6 -7 -7 -7 -8 -8 -8 -9 -9 -10 -11 -11 -12 -12 -13 -13 -14 -14 -15
-7 -6 -7 -6 -6 -6 -7 -7 -7 -7 -8 -7 -6 -7 -7 -7 -7 -8 -7 -7 -8 -8 -10 -9 -9 -8 -8 -9 -9 -9 -9 -10 -10 -11 -12 -12 -13 -13 -14 -15 -15 -16 -16 -16
-9 -9 -9 -9 -9 -9 -9 -9 -8 -8 -8 -7 -7 -8 -8 -9 -8 -8 -8 -10 -11 -11 -11 -10 -10 -10 -10 -10 -10 -11 -11 -12 -12 -13 -13 -14 -15 -15 -16 -17 -17 -17 -18 -18
-10 -9 -9 -9 -10 -9 -9 -9 -8 -8 -8 -8 -8 -9 -10 -10 -10 -10 -10 -11 -12 -12 -11 -11 -11 -11 -12 -12 -12 -13 -13 -14 -15 -18 -19 -19 -19 -19 -19 -19 -19 -19 -19 -20
-10 -10 -9 -9 -9 -9 -9 -9 -9 -9 -10 -10 -10 -11 -11 -11 -11 -12 -12 -13 -13 -13 -13 -13 -13 -14 -15 -18 -21 -22 -22 -22 -22 -21 -21 -20 -20 -20 -20 -20 -21 -21 -22 -22
-10 -10 -9 -10 -10 -10 -10 -10 -10 -10 -10 -10 -11 -11 -11 -12 -13 -12 -14 -14 -14 -15 -18 -20 -21 -21 -22 -23 -24 -24 -24 -24 -23 -22 -22 -22 -22 -22 -22 -23 -23 -24 -23 -23
-10 -10 -11 -11 -10 -11 -11 -11 -11 -12 -12 -12 -13 -13 -13 -14 -14 -15 -16 -17 -19 -20 -21 -21 -22 -23 -24 -25 -26 -25 -25 -24 -24 -24 -24 -23 -23 -24 -24 -25 -25 -25 -25 -25
-11 -11 -11 -12 -12 -12 -12 -13 -13 -14 -14 -15 -16 -16 -17 -17 -18 -17 -18 -18 -19 -20 -21 -21 -22 -22 -23 -25 -25 -25 -25 -25 -24 -24 -25 -24 -24 -25 -25 -25 -25 -25 -25 -25
-12 -12 -12 -12 -13 -13 -14 -14 -15 -16 -17 -17 -17 -17 -17 -17 -17 -18 -18 -19 -19 -20 -21 -23 -23 -24 -25 -26 -26 -26 -25 -25 -25 -25 -25 -25 -25 -25 -26 -26 -26 -27 -27 -27
-14 -14 -14 -14 -14 -14 -15 -16 -17 -17 -17 -17 -19 -18 -18 -18 -18 -19 -19 -19 -20 -21 -22 -23 -24 -25 -26 -26 -26 -26 -26 -26 -26 -26 -26 -26 -26 -26 -26 -26 -25 -25 -25 -25

GFSNGP_850_dewp_048.txt.gz
Dewpoint
6 5 4 3 2 2 2 3 4 2 0 -2 -2 -2 -2 -4 -4 -3 -4 -5 -5 -4 -5 -3 -1 1 0 -0 2 3 4 5 4 5 6 6 6 7 7 7 7 8 8 9
5 4 4 2 1 1 2 2 2 1 1 -3 -3 -3 -2 -2 -2 -2 -3 -5 -5 -6 -5 -3 -3 -3 -2 -3 -1 1 2 2 3 5 6 7 8 8 8 8 8 9 10 9
4 3 2 3 1 1 0 -1 1 3 1 -2 -2 -2 -1 -2 -2 -2 -2 -3 -5 -5 -5 -3 -2 -3 -2 -3 -1 0 2 3 4 5 6 8 8 9 9 9 9 10 9 10
4 3 4 -3 -1 -1 -1 0 1 1 -0 0 -1 -3 -4 -4 -2 -4 -4 -5 -3 -3 -4 -4 -4 -3 -2 -1 0 1 4 4 5 6 7 8 9 9 10 10 10 10 9 9
3 4 2 -2 -4 -3 2 -5 -1 -2 1 4 3 -3 -4 -5 -4 -5 -7 -6 -5 -4 -2 -2 -3 -4 -1 1 2 2 4 5 6 7 8 9 10 10 10 9 9 8 8 8
4 4 2 -4 -1 2 2 1 3 4 5 5 5 3 -2 -4 -5 -6 -6 -5 -7 -6 -5 -4 -3 -3 -2 1 3 5 6 6 8 8 9 10 9 9 8 8 8 8 7 6
3 5 2 0 -0 2 3 -0 3 2 3 4 5 3 3 3 -0 -5 -6 -6 -6 -7 -4 -4 -3 -2 -2 2 5 6 8 8 9 10 10 9 9 9 8 8 7 6 5 4
4 5 3 -1 4 2 1 0 0 1 2 3 4 3 4 2 0 -2 -4 -5 -6 -4 -3 -2 -3 -1 3 6 7 9 9 10 10 9 9 9 8 8 7 6 5 4 4 3
2 2 -1 2 3 2 2 0 2 3 1 1 3 3 4 3 2 1 -0 -2 -2 -0 2 2 5 6 7 8 9 10 10 10 10 9 8 7 6 6 5 4 3 3 1 1
2 -1 -0 -2 -2 -1 1 1 1 1 -0 1 3 3 4 3 2 2 3 4 4 5 6 7 8 8 9 9 9 9 9 9 8 7 6 5 4 4 3 3 1 0 -1 -1
1 -1 1 -2 1 3 3 2 2 2 0 2 3 4 3 3 2 3 3 4 5 7 7 7 8 8 8 9 8 7 7 6 5 4 3 2 1 0 -0 -1 -1 -1 -1 -1
1 3 3 3 3 2 2 2 3 3 2 2 4 2 3 3 3 3 3 3 4 6 6 6 6 7 7 6 5 5 4 3 2 2 1 1 1 0 -0 -1 -1 -1 -2 -2
2 2 2 2 3 3 1 2 2 1 3 2 3 3 3 3 2 3 3 3 3 4 4 4 4 4 4 3 3 3 2 2 1 1 1 0 -0 -1 -1 -3 -4 -4 -4 -5
1 1 2 2 1 1 0 1 1 -1 -0 -0 1 2 2 1 1 1 2 1 2 2 2 3 3 2 2 2 2 2 1 1 -0 -1 -2 -3 -4 -4 -5 -5 -5 -6 -7 -8
-0 0 0 0 -0 -0 -2 -0 -1 -2 -2 -2 -2 -1 -1 -1 -2 -3 -3 -2 -1 -0 -1 -0 1 -1 -0 -1 0 -0 -1 -2 -3 -4 -4 -5 -6 -6 -7 -7 -8 -8 -9 -10
-2 -1 -0 -1 -2 -1 -2 -2 -4 -6 -5 -4 -4 -4 -4 -4 -5 -5 -4 -4 -2 -4 -5 -4 -6 -6 -4 -3 -3 -4 -5 -5 -5 -6 -6 -7 -7 -8 -8 -9 -10 -11 -11 -12
-4 -3 -4 -4 -5 -5 -4 -6 -7 -7 -7 -7 -7 -7 -6 -6 -5 -6 -6 -6 -6 -6 -6 -6 -6 -6 -5 -5 -5 -5 -6 -7 -7 -8 -8 -8 -9 -9 -10 -11 -11 -12 -13 -13
-6 -6 -6 -6 -7 -7 -7 -8 -8 -8 -8 -8 -8 -8 -8 -7 -8 -8 -8 -7 -7 -7 -8 -8 -7 -7 -7 -7 -7 -8 -8 -8 -9 -9 -10 -10 -11 -11 -12 -12 -13 -14 -14 -15
-8 -8 -8 -8 -9 -9 -9 -10 -9 -9 -8 -8 -7 -8 -8 -9 -9 -9 -8 -8 -8 -9 -10 -9 -8 -8 -8 -9 -9 -9 -9 -10 -10 -11 -12 -12 -13 -13 -14 -15 -15 -16 -16 -17
-10 -10 -10 -10 -9 -9 -10 -11 -10 -10 -10 -9 -9 -9 -9 -10 -9 -9 -9 -11 -12 -12 -11 -10 -10 -10 -10 -11 -10 -11 -11 -12 -12 -13 -14 -15 -17 -18 -19 -19 -19 -19 -19 -20
-10 -10 -10 -10 -10 -10 -10 -10 -9 -10 -9 -9 -9 -10 -11 -11 -11 -11 -11 -12 -13 -12 -12 -11 -11 -12 -12 -13 -14 -16 -19 -21 -22 -22 -22 -21 -21 -21 -20 -21 -21 -21 -22 -22
-10 -10 -10 -10 -10 -10 -10 -10 -10 -10 -10 -11 -11 -11 -11 -12 -12 -12 -13 -14 -14 -13 -13 -16 -20 -23 -24 -24 -25 -26 -26 -26 -26 -25 -25 -24 -24 -24 -24 -24 -24 -24 -24 -25
-10 -10 -10 -10 -10 -11 -10 -10 -11 -11 -11 -11 -11 -12 -12 -13 -14 -15 -16 -18 -20 -22 -23 -24 -25 -27 -28 -29 -29 -29 -28 -28 -28 -27 -26 -26 -26 -25 -25 -25 -26 -26 -26 -26
-10 -11 -11 -11 -11 -11 -11 -12 -12 -12 -13 -13 -14 -14 -15 -17 -18 -19 -19 -19 -21 -22 -25 -25 -26 -27 -28 -28 -28 -28 -27 -27 -26 -26 -26 -26 -25 -25 -25 -26 -26 -26 -26 -26
-11 -11 -11 -12 -12 -13 -13 -14 -15 -16 -16 -17 -17 -18 -19 -19 -20 -19 -19 -20 -21 -23 -25 -26 -26 -26 -27 -27 -27 -27 -27 -27 -26 -26 -26 -26 -26 -26 -26 -26 -26 -27 -27 -26
-12 -12 -13 -13 -14 -14 -15 -16 -18 -18 -18 -19 -18 -17 -18 -18 -18 -19 -20 -20 -22 -23 -26 -26 -27 -27 -28 -28 -28 -27 -27 -27 -27 -27 -27 -27 -27 -26 -26 -26 -26 -26 -25 -25
-13 -14 -14 -15 -16 -16 -17 -18 -19 -20 -18 -19 -20 -19 -19 -19 -19 -20 -21 -22 -24 -25 -27 -27 -28 -28 -28 -28 -27 -27 -27 -27 -27 -26 -26 -26 -26 -26 -26 -25 -25 -25 -25 -25

GFSNGP_850_dewp_051.txt.gz
Dewpoint
1 2 4 3 1 0 1 1 3 0 2 1 -0 -1 -2 -3 -3 -3 -4 -4 -4 -5 -6 -5 -3 -1 1 2 2 4 5 5 4 5 5 5 4 3 2 2 2 2 1 2
5 4 3 3 1 0 0 -0 0 2 2 -1 -1 -2 -2 -2 -2 -2 -3 -4 -4 -4 -5 -5 -5 -4 -2 -3 -2 -0 1 1 3 4 5 5 6 6 6 5 4 4 4 5
3 3 2 2 2 0 -1 -3 -2 -1 -4 -0 -0 -1 0 -1 -2 -2 -4 -4 -4 -3 -3 -5 -6 -6 -4 -5 -4 -2 -3 -1 1 3 3 4 5 7 7 7 8 8 7 8
4 3 3 -4 -2 -2 -1 -2 -3 -2 -1 -1 -0 2 3 2 -1 -3 -3 -5 -5 -6 -6 -4 -4 -4 -4 -3 -3 -2 -2 -2 0 2 2 4 6 7 8 9 9 9 9 9
5 4 0 -3 -4 -5 -2 -5 -1 2 3 2 3 4 3 2 1 1 1 -3 -4 -4 -6 -5 -4 -3 -4 -2 -1 -1 -1 -0 1 3 4 5 6 7 9 9 10 10 9 9
5 3 3 -3 1 2 0 -0 1 2 1 1 3 5 3 3 3 3 2 0 -2 -5 -5 -5 -6 -4 -2 -2 -2 0 -0 2 3 4 6 6 8 9 9 9 9 9 9 9
5 4 2 -1 -2 1 1 -1 -0 2 1 2 3 3 3 2 3 4 2 0 -1 -3 -4 -5 -5 -5 -3 -2 -0 1 3 5 6 7 8 9 9 9 9 9 8 8 7 7
3 5 4 -2 3 3 -0 1 1 1 2 3 3 1 2 4 4 4 2 2 2 -1 -4 -3 -3 -3 -1 0 2 5 7 8 9 9 9 9 9 9 8 8 7 6 5 4
3 2 -0 -0 2 0 2 3 3 3 2 2 2 2 2 4 4 4 3 4 5 5 1 1 -0 2 2 4 7 8 9 9 9 9 9 9 8 8 7 6 4 4 3 3
1 -1 -1 -1 -1 2 2 3 3 3 3 3 4 2 3 4 4 3 4 5 6 6 6 6 7 7 8 8 9 9 9 9 8 8 8 7 6 5 4 4 3 3 2 1
1 -1 1 0 3 2 3 2 2 2 4 4 4 4 3 4 4 3 3 5 6 6 7 6 7 8 8 8 8 8 8 8 7 6 6 5 4 3 2 2 1 0 -0 -0
1 2 2 1 2 2 2 1 0 -0 2 4 2 2 2 3 2 3 3 3 5 5 5 6 6 7 6 6 7 8 7 6 4 4 3 2 1 -0 -1 -1 -1 -1 -1 -2
1 1 1 2 2 2 1 -0 -1 -1 -1 1 2 -0 -0 0 1 0 1 2 3 3 2 3 4 5 5 4 4 4 4 2 2 1 1 0 -0 -1 -1 -4 -3 -4 -4 -5
0 1 2 1 0 1 -0 -1 -2 -2 -2 -2 -0 -2 -2 -2 -1 -2 -2 -3 -2 -1 1 1 1 0 1 2 2 2 2 2 -0 -2 -2 -3 -3 -3 -4 -4 -5 -6 -7 -7
-2 -2 -1 -1 -0 -1 -1 -2 -3 -3 -3 -3 -3 -3 -5 -5 -5 -6 -5 -4 -3 -3 -3 -2 -2 -3 -2 -1 -1 -1 -2 -2 -3 -4 -5 -4 -5 -5 -5 -6 -7 -7 -8 -9
-4 -3 -2 -2 -3 -3 -4 -5 -6 -7 -6 -6 -6 -6 -7 -7 -7 -6 -6 -5 -4 -5 -5 -5 -5 -5 -4 -3 -3 -4 -4 -4 -4 -5 -6 -6 -6 -7 -7 -8 -9 -10 -11 -11
-5 -4 -5 -5 -5 -6 -6 -7 -8 -8 -8 -8 -8 -8 -7 -7 -8 -9 -8 -7 -7 -7 -7 -6 -6 -6 -5 -5 -5 -5 -6 -6 -6 -7 -7 -8 -8 -9 -10 -10 -11 -12 -12 -13
-7 -7 -7 -7 -8 -8 -9 -9 -9 -10 -10 -10 -9 -9 -8 -8 -8 -9 -9 -9 -8 -8 -8 -8 -8 -7 -7 -7 -7 -7 -8 -8 -8 -8 -9 -10 -10 -11 -12 -12 -13 -13 -14 -15
-9 -9 -9 -9 -9 -10 -10 -11 -11 -11 -10 -10 -9 -9 -10 -10 -10 -10 -9 -9 -10 -11 -11 -10 -9 -9 -9 -9 -9 -9 -10 -10 -10 -11 -11 -12 -12 -13 -14 -14 -15 -16 -17 -18
-11 -11 -10 -11 -11 -11 -11 -11 -11 -10 -10 -10 -10 -10 -11 -11 -11 -10 -10 -11 -12 -12 -11 -11 -10 -10 -11 -11 -11 -11 -11 -12 -13 -14 -15 -18 -20 -21 -21 -21 -21 -22 -22 -23
-11 -11 -11 -11 -11 -11 -11 -11 -10 -11 -11 -10 -10 -11 -12 -12 -12 -12 -12 -13 -14 -13 -12 -13 -16 -21 -24 -24 -25 -25 -25 -25 -25 -25 -25 -26 -25 -25 -25 -25 -25 -25 -25 -25
-11 -11 -11 -11 -11 -11 -11 -11 -11 -11 -11 -11 -12 -12 -12 -13 -12 -12 -14 -15 -18 -23 -25 -28 -30 -30 -30 -30 -30 -30 -30 -30 -29 -29 -28 -28 -27 -26 -26 -26 -26 -26 -26 -26
-11 -11 -11 -11 -11 -12 -11 -11 -11 -12 -12 -12 -12 -13 -14 -17 -18 -20 -22 -22 -24 -26 -29 -30 -30 -31 -30 -30 -30 -29 -29 -29 -28 -28 -27 -27 -27 -26 -26 -26 -26 -26 -26 -27
-11 -11 -11 -12 -11 -11 -12 -13 -13 -14 -14 -15 -17 -18 -20 -21 -22 -22 -22 -22 -24 -28 -30 -28 -29 -29 -29 -29 -29 -28 -28 -28 -27 -27 -27 -27 -27 -27 -27 -27 -27 -27 -27 -27
-11 -12 -12 -13 -14 -14 -15 -16 -17 -17 -18 -19 -20 -20 -20 -21 -22 -20 -22 -24 -25 -28 -28 -29 -29 -29 -29 -29 -28 -28 -28 -28 -28 -27 -27 -27 -27 -27 -27 -26 -26 -26 -26 -25
-13 -13 -14 -15 -15 -16 -17 -18 -20 -19 -19 -20 -20 -19 -20 -20 -20 -21 -23 -25 -26 -28 -28 -29 -29 -29 -28 -28 -28 -28 -27 -27 -27 -27 -27 -26 -26 -26 -26 -26 -26 -26 -25 -25
-14 -15 -16 -18 -18 -18 -19 -20 -21 -22 -21 -20 -22 -20 -20 -21 -21 -23 -24 -26 -27 -28 -28 -28 -28 -28 -28 -27 -27 -27 -27 -27 -27 -27 -26 -26 -26 -26 -26 -26 -26 -25 -25 -25

GFSNGP_850_dewp_057.txt.gz
Dewpoint
-3 -1 -1 -1 0 -0 0 0 2 0 0 -3 -4 -5 -7 -7 -7 -6 -5 -2 -1 -1 -2 -2 1 5 7 7 8 9 9 8 8 7 7 8 9 9 8 8 8 8 8 8
3 -2 -2 -0 -1 -2 -3 -3 -3 -3 -3 -6 -6 -6 -7 -7 -8 -6 -4 -0 1 2 1 -0 -1 -1 4 6 7 8 9 9 8 9 9 9 9 9 9 8 9 8 8 8
4 -0 -1 -0 -1 -2 -2 -3 -2 -1 -4 -8 -7 -8 -7 -5 -3 -2 -0 2 3 4 3 3 2 1 1 4 7 8 8 9 9 9 9 9 9 9 9 8 9 8 8 8
4 2 6 -3 -6 -6 -4 -5 -6 -7 -8 -7 -5 -4 -4 -4 0 2 2 3 3 4 4 4 3 3 2 0 3 6 7 8 8 9 9 9 9 9 9 9 9 8 9 8
2 1 -2 -6 -7 -7 -6 -8 -9 -8 -5 -4 -3 -3 -3 -0 1 1 2 3 3 4 4 5 5 4 3 1 0 2 5 7 8 8 8 8 9 9 9 9 9 9 9 9
2 2 1 -5 -6 -4 -6 -5 -4 -3 -2 -2 -2 1 -2 0 1 2 1 2 2 3 4 5 6 6 6 2 -0 1 2 6 7 8 8 8 8 8 9 9 9 9 9 9
1 1 -3 -7 -6 -6 0 1 -1 -2 -2 -2 -1 -2 -0 0 2 2 2 2 2 3 4 5 5 5 6 6 5 2 2 3 7 8 8 8 8 9 9 9 9 9 9 9
1 2 2 -5 -5 -2 3 0 0 -0 0 2 1 0 -1 2 2 3 2 1 2 2 3 4 6 6 6 7 7 6 6 5 6 7 8 9 9 9 9 10 9 9 8 8
-2 -1 -2 -3 1 2 1 1 1 1 1 1 1 0 2 2 2 2 2 1 1 1 2 4 5 4 4 5 6 7 8 7 7 8 9 9 9 10 9 9 9 8 7 6
2 -3 -1 -4 0 1 1 1 1 0 0 0 1 1 1 1 1 1 0 0 0 1 1 3 4 3 1 2 3 5 7 7 8 8 8 9 8 8 8 7 6 6 5 4
-2 -3 -4 -4 1 2 1 1 0 0 0 0 0 0 -0 -0 -1 -1 -2 -2 -2 0 -2 1 2 1 -0 -1 0 2 4 4 5 5 5 4 5 4 4 3 4 3 1 1
-1 1 1 -1 0 1 -0 0 -0 -0 -0 -1 -1 -2 -1 -1 -3 -4 -4 -3 -2 -2 -1 -2 1 -1 -2 -2 -2 -1 0 -0 0 1 0 -1 -1 -2 -2 -1 -0 -0 -1 -2
1 1 1 1 0 0 -0 -1 -2 -2 -2 -3 -3 -3 -3 -4 -6 -5 -4 -4 -3 -4 -4 -4 -2 -3 -4 -2 -4 -2 -3 -3 -4 -2 -4 -5 -4 -4 -6 -6 -5 -5 -4 -4
-1 -1 0 1 0 -1 -1 -2 -2 -3 -4 -4 -4 -5 -5 -6 -7 -7 -7 -6 -5 -5 -5 -5 -4 -5 -6 -6 -4 -5 -5 -3 -3 -3 -4 -4 -6 -5 -5 -5 -6 -8 -8 -8
-3 -3 -3 -1 -1 -2 -2 -3 -3 -4 -5 -6 -7 -7 -7 -8 -8 -8 -8 -8 -7 -6 -7 -7 -6 -6 -6 -6 -5 -5 -6 -5 -5 -5 -5 -5 -6 -6 -7 -7 -9 -10 -10 -10
-5 -4 -3 -3 -4 -4 -5 -5 -5 -6 -7 -8 -9 -9 -10 -10 -10 -9 -9 -8 -8 -8 -8 -8 -8 -8 -7 -6 -6 -6 -6 -6 -6 -6 -7 -7 -8 -8 -8 -9 -10 -11 -12 -12
-5 -4 -5 -4 -5 -6 -6 -7 -7 -9 -9 -10 -10 -10 -10 -10 -10 -10 -10 -9 -9 -9 -9 -9 -9 -8 -8 -8 -7 -9 -9 -8 -8 -9 -9 -10 -10 -11 -11 -11 -12 -12 -13 -13
-6 -7 -7 -6 -6 -7 -8 -9 -9 -10 -11 -11 -11 -11 -11 -11 -11 -11 -11 -10 -9 -9 -10 -10 -9 -8 -8 -9 -9 -9 -9 -10 -10 -11 -12 -12 -12 -12 -13 -13 -14 -14 -15 -15
-8 -8 -8 -8 -9 -9 -10 -11 -12 -12 -11 -11 -11 -11 -11 -11 -11 -11 -11 -10 -10 -11 -12 -11 -10 -10 -10 -10 -11 -11 -11 -12 -13 -13 -13 -14 -14 -14 -14 -14 -15 -15 -16 -16
-10 -10 -11 -11 -11 -12 -12 -12 -12 -12 -12 -11 -11 -11 -12 -12 -13 -12 -11 -12 -14 -16 -22 -23 -25 -26 -24 -22 -18 -15 -14 -15 -15 -15 -15 -15 -15 -15 -16 -16 -16 -16 -17 -18
-11 -12 -12 -12 -12 -12 -12 -11 -11 -11 -11 -11 -11 -11 -12 -12 -12 -14 -15 -18 -24 -29 -32 -34 -34 -24 -26 -18 -17 -16 -16 -16 -16 -16 -16 -16 -16 -17 -17 -17 -18 -18 -18 -18
-12 -12 -12 -12 -12 -12 -12 -12 -12 -12 -13 -13 -14 -14 -14 -15 -17 -23 -24 -17 -22 -29 -30 -32 -32 -32 -29 -20 -17 -17 -17 -18 -17 -17 -18 -18 -18 -18 -18 -19 -19 -19 -19 -20
-12 -12 -12 -12 -12 -12 -12 -12 -12 -12 -13 -16 -18 -19 -20 -18 -18 -17 -19 -27 -28 -31 -31 -32 -32 -31 -28 -18 -18 -18 -19 -19 -19 -19 -19 -19 -19 -20 -20 -21 -20 -21 -21 -21
-12 -12 -12 -12 -12 -13 -13 -14 -14 -15 -17 -18 -20 -17 -15 -16 -17 -18 -19 -26 -29 -30 -31 -31 -31 -30 -21 -19 -19 -20 -19 -20 -20 -20 -20 -20 -20 -21 -21 -21 -21 -22 -22 -22
-12 -12 -12 -12 -12 -13 -14 -14 -15 -15 -15 -16 -17 -17 -18 -18 -18 -19 -20 -22 -29 -20 -24 -31 -31 -29 -24 -22 -23 -20 -20 -26 -28 -21 -21 -21 -21 -22 -22 -22 -24 -26 -27 -25
-12 -13 -13 -13 -13 -14 -15 -15 -15 -15 -15 -16 -17 -18 -18 -18 -19 -19 -20 -24 -24 -22 -21 -23 -30 -21 -20 -23 -21 -25 -21 -21 -22 -22 -24 -22 -22 -22 -23 -26 -26 -26 -26 -26
-13 -14 -14 -15 -15 -15 -15 -15 -15 -15 -16 -17 -17 -18 -18 -19 -19 -19 -19 -20 -20 -20 -20 -21 -22 -28 -28 -26 -21 -22 -22 -22 -25 -28 -27 -25 -25 -24 -26 -26 -26 -26 -25 -25

GFSNGP_850_dewp_060.txt.gz
Dewpoint
2 2 1 1 3 1 3 6 8 5 3 4 3 3 -4 -7 -7 -7 -5 -1 2 3 3 3 3 2 5 7 8 9 9 8 8 9 9 9 9 7 7 8 9 9 10 9
5 2 -1 -1 1 6 5 -1 -1 2 5 0 -1 -6 -6 -6 -6 -4 -1 2 3 3 4 4 4 3 3 3 7 8 9 9 9 8 9 9 10 10 10 10 9 10 10 10
5 2 1 2 -1 2 2 -3 -3 -1 -3 -3 -6 -7 -6 -4 -3 1 2 3 3 3 4 4 5 4 3 3 3 4 8 8 9 9 9 9 9 10 10 10 10 10 10 10
5 6 6 -2 -6 -5 -3 -3 -4 -4 -4 -6 -5 -5 -5 0 1 1 1 2 2 2 3 4 5 6 5 4 3 2 2 7 8 9 9 9 9 10 9 9 10 10 10 10
7 5 4 1 -5 -6 -5 -4 -6 -8 -7 -5 -3 -3 -0 1 1 1 1 1 2 2 3 4 4 4 4 3 4 4 3 1 5 8 9 9 9 10 10 10 10 10 10 10
3 4 6 -2 -4 -5 -7 -3 -5 -3 -2 -2 -3 3 3 1 1 1 2 2 1 2 2 3 2 4 4 5 5 6 6 6 4 2 7 9 9 9 10 10 10 10 10 10
3 3 -0 -7 -7 -6 -1 4 -0 -1 -0 0 1 0 -1 -0 1 1 2 2 1 1 1 1 2 3 4 5 6 6 7 7 5 3 4 8 8 9 9 9 10 10 9 9
2 2 2 -7 -5 -3 4 3 2 1 1 1 0 -0 0 2 2 2 1 1 1 0 -0 -0 0 2 2 3 4 6 6 7 7 7 5 8 8 8 9 9 9 10 9 9
-1 -1 -2 -3 1 2 1 2 1 1 0 0 0 0 0 1 1 0 -0 -1 -1 -0 -1 -0 1 1 1 1 2 3 5 5 5 7 7 8 8 8 8 9 9 9 9 8
1 -1 -5 2 2 1 1 1 0 -0 0 0 0 0 -0 0 -1 -2 -2 -3 -3 -2 -2 -1 -1 -0 -1 -1 -1 1 3 2 3 4 6 7 8 8 8 9 9 8 7 5
1 2 3 4 3 0 0 -0 -0 -0 -0 -1 -1 -1 -1 -2 -3 -3 -4 -3 -3 -3 -4 -3 -3 -2 -2 -2 -2 -1 -1 -2 -1 -1 -0 1 3 3 5 3 4 4 2 -1
4 2 4 3 0 -0 -1 -1 -1 -2 -2 -2 -2 -2 -2 -4 -5 -5 -5 -5 -5 -5 -4 -5 -5 -4 -4 -4 -4 -4 -3 -3 -4 -5 -6 -7 -5 -4 -5 -2 -2 -3 -3 -3
0 -1 1 1 -0 -1 -1 -1 -2 -3 -3 -4 -4 -4 -5 -5 -7 -6 -6 -6 -6 -7 -6 -6 -6 -6 -5 -5 -5 -5 -6 -6 -5 -6 -7 -8 -9 -9 -8 -7 -6 -7 -8 -7
-3 -2 -0 -1 -1 -2 -2 -2 -3 -4 -5 -5 -5 -6 -6 -7 -8 -8 -8 -8 -8 -8 -8 -8 -8 -7 -7 -6 -6 -6 -6 -7 -7 -6 -6 -7 -9 -10 -10 -9 -9 -10 -8 -8
-4 -3 -2 -2 -3 -4 -4 -4 -4 -5 -6 -7 -7 -8 -9 -9 -9 -9 -9 -9 -9 -8 -8 -8 -8 -8 -8 -7 -7 -7 -7 -7 -8 -8 -9 -9 -9 -10 -10 -11 -11 -11 -11 -11
-4 -3 -4 -4 -4 -5 -6 -6 -6 -6 -7 -8 -9 -10 -10 -10 -10 -10 -9 -9 -9 -9 -9 -9 -8 -9 -8 -7 -7 -7 -7 -8 -9 -9 -9 -9 -9 -10 -10 -11 -12 -12 -13 -13
-5 -5 -5 -5 -5 -6 -7 -7 -7 -8 -9 -9 -10 -10 -11 -11 -11 -11 -11 -10 -10 -10 -10 -10 -10 -9 -9 -9 -9 -9 -9 -9 -9 -10 -11 -11 -11 -12 -12 -12 -13 -13 -14 -14
-6 -7 -7 -7 -6 -7 -9 -9 -10 -10 -11 -11 -11 -11 -11 -11 -11 -12 -11 -11 -10 -10 -10 -11 -11 -10 -10 -10 -10 -11 -11 -11 -11 -12 -12 -12 -13 -13 -13 -14 -14 -14 -15 -15
-8 -8 -8 -9 -9 -9 -10 -11 -12 -12 -12 -11 -11 -12 -12 -12 -11 -11 -11 -10 -10 -11 -13 -14 -18 -19 -18 -15 -14 -14 -13 -13 -13 -13 -14 -14 -14 -14 -14 -15 -15 -16 -16 -17
-10 -11 -11 -11 -11 -12 -12 -12 -12 -12 -12 -12 -12 -12 -12 -13 -14 -13 -12 -12 -15 -20 -28 -27 -23 -23 -17 -16 -15 -16 -16 -15 -15 -16 -16 -16 -15 -16 -16 -16 -16 -17 -17 -18
-11 -12 -12 -12 -12 -12 -12 -12 -12 -12 -12 -12 -12 -12 -13 -14 -14 -15 -18 -24 -27 -27 -30 -32 -29 -22 -20 -19 -20 -19 -17 -16 -16 -16 -16 -17 -17 -17 -17 -17 -18 -18 -18 -19
-12 -12 -12 -12 -12 -12 -12 -12 -12 -12 -13 -13 -13 -14 -14 -14 -15 -22 -26 -22 -28 -32 -33 -33 -31 -25 -19 -18 -20 -20 -20 -19 -18 -18 -18 -18 -18 -18 -18 -19 -19 -19 -19 -20
-12 -12 -12 -12 -12 -12 -12 -12 -13 -13 -15 -17 -17 -16 -18 -20 -21 -22 -23 -28 -30 -31 -32 -32 -30 -26 -22 -21 -20 -19 -19 -19 -19 -21 -19 -19 -20 -19 -20 -21 -20 -20 -21 -22
-11 -12 -12 -12 -12 -12 -13 -14 -14 -16 -17 -18 -18 -15 -15 -16 -17 -18 -25 -29 -26 -24 -31 -32 -31 -29 -24 -22 -20 -21 -24 -22 -19 -19 -20 -20 -20 -21 -21 -21 -21 -21 -23 -23
-11 -12 -12 -12 -12 -13 -14 -14 -14 -14 -15 -15 -16 -17 -17 -19 -20 -22 -22 -21 -23 -19 -21 -29 -27 -20 -22 -22 -24 -22 -20 -23 -24 -24 -21 -21 -21 -22 -22 -23 -24 -25 -24 -24
-12 -12 -13 -13 -13 -14 -14 -14 -14 -14 -14 -15 -16 -17 -17 -18 -18 -18 -18 -19 -20 -19 -19 -20 -24 -25 -23 -21 -21 -22 -20 -21 -24 -25 -24 -22 -23 -22 -23 -25 -26 -25 -25 -26
-13 -13 -14 -14 -15 -16 -15 -14 -14 -15 -16 -16 -17 -17 -18 -18 -18 -18 -19 -19 -19 -20 -20 -20 -20 -21 -23 -24 -21 -22 -21 -22 -22 -24 -25 -24 -25 -24 -25 -27 -27 -26 -26 -26

GFSNGP_850_dewp_063.txt.gz
Dewpoint
4 3 4 5 5 3 4 4 9 8 8 6 7 6 2 -4 0 2 3 3 3 4 4 3 3 3 4 5 6 10 9 8 8 8 7 7 8 7 8 9 9 9 8 8
4 3 2 4 4 2 5 6 5 7 8 7 6 5 4 -0 2 3 3 3 3 3 2 3 3 3 4 4 4 6 9 10 9 9 8 8 8 8 8 7 6 9 8 8
6 2 5 4 1 5 6 6 5 8 5 6 6 4 1 2 1 2 2 3 3 2 2 0 0 0 1 2 3 4 6 7 10 9 9 9 8 8 9 9 8 8 8 9
5 3 7 3 1 2 3 4 2 -2 0 -3 -0 2 1 1 2 2 2 2 2 2 1 0 -1 -1 -1 0 2 3 3 5 6 9 10 9 9 9 9 9 10 10 9 9
5 5 3 2 1 -4 0 -0 -2 -3 -3 -2 1 1 1 1 2 2 1 1 1 1 1 1 -1 -2 -1 1 2 3 3 4 5 5 5 8 10 9 9 9 9 10 10 10
4 5 6 3 -1 -4 -4 5 2 1 1 1 1 4 2 2 2 1 1 1 0 0 0 0 -0 0 -1 0 1 1 2 4 5 5 5 5 6 9 10 10 9 10 10 10
2 4 4 0 -3 -4 1 6 2 2 2 1 2 2 2 2 1 1 1 -0 -1 -0 -0 -0 0 0 -0 -0 0 1 2 2 3 5 5 6 6 5 9 10 10 10 10 10
2 3 3 -4 0 1 4 2 2 1 1 1 1 1 1 1 0 0 -1 -1 -1 -0 -0 0 0 -0 -0 -1 -1 -1 0 1 2 4 5 6 6 7 9 10 10 10 10 10
1 1 1 3 3 3 2 1 1 1 0 0 0 0 -0 -0 -1 -1 -1 -1 -0 -0 -0 -1 -1 -1 -1 -1 -1 -1 -1 -1 -0 2 4 5 5 6 7 8 9 9 9 9
2 3 3 4 3 1 0 0 0 0 0 0 -0 -0 -1 -1 -2 -1 -1 -1 -2 -1 -1 -1 -2 -2 -2 -2 -3 -3 -3 -3 -3 -2 -0 2 3 3 3 4 5 4 3 5
3 4 3 3 2 1 -0 -1 -1 -1 -1 -1 -1 -1 -1 -2 -1 -2 -2 -2 -3 -3 -3 -4 -3 -3 -3 -3 -4 -4 -4 -4 -4 -4 -4 -3 -2 -2 -2 -2 -2 -2 -3 -5
4 3 3 2 2 1 -0 -1 -2 -2 -2 -3 -2 -3 -3 -3 -4 -5 -5 -5 -5 -6 -6 -6 -6 -6 -6 -5 -5 -6 -6 -6 -6 -7 -7 -7 -6 -6 -7 -6 -5 -5 -5 -6
-0 2 1 -0 -1 -1 -2 -3 -3 -3 -4 -4 -4 -5 -5 -7 -7 -7 -7 -7 -7 -7 -7 -7 -7 -7 -7 -7 -6 -7 -7 -7 -8 -8 -9 -9 -9 -9 -7 -7 -7 -8 -8 -8
-2 0 -2 -2 -3 -3 -3 -4 -4 -5 -6 -6 -6 -6 -7 -8 -8 -9 -9 -9 -8 -8 -8 -8 -8 -8 -7 -7 -7 -7 -7 -7 -8 -8 -8 -9 -8 -9 -9 -9 -9 -9 -9 -8
-3 -3 -3 -4 -5 -5 -4 -5 -6 -7 -8 -8 -9 -9 -10 -10 -10 -10 -10 -9 -9 -8 -8 -8 -8 -8 -8 -7 -7 -8 -8 -8 -8 -8 -8 -8 -9 -9 -10 -10 -11 -11 -11 -10
-4 -4 -4 -6 -6 -6 -7 -7 -8 -8 -9 -10 -10 -11 -11 -11 -11 -10 -10 -10 -9 -9 -9 -9 -9 -9 -8 -8 -8 -8 -8 -9 -9 -10 -10 -10 -10 -10 -11 -11 -11 -12 -12 -12
-5 -6 -5 -6 -7 -8 -8 -9 -9 -9 -10 -10 -11 -11 -12 -11 -11 -11 -11 -10 -10 -10 -11 -10 -10 -10 -10 -9 -9 -10 -10 -10 -9 -9 -10 -11 -12 -12 -12 -12 -13 -13 -14 -14
-7 -7 -7 -7 -8 -9 -10 -10 -11 -11 -11 -11 -11 -11 -11 -11 -11 -12 -12 -11 -11 -10 -11 -12 -12 -11 -10 -11 -10 -11 -11 -11 -12 -12 -13 -13 -14 -14 -14 -14 -15 -15 -15 -16
-9 -9 -9 -9 -10 -11 -11 -11 -12 -11 -11 -11 -11 -11 -12 -12 -12 -12 -11 -11 -11 -13 -17 -23 -22 -22 -22 -19 -18 -17 -15 -15 -15 -14 -14 -14 -15 -15 -16 -17 -17 -18 -19 -19
-11 -11 -11 -11 -11 -12 -12 -12 -12 -12 -12 -12 -12 -12 -12 -13 -12 -13 -17 -20 -25 -28 -26 -24 -24 -23 -22 -20 -20 -19 -18 -18 -18 -17 -17 -17 -17 -17 -17 -17 -17 -18 -18 -19
-12 -12 -12 -12 -12 -12 -12 -12 -12 -12 -12 -12 -12 -13 -16 -19 -19 -20 -24 -29 -29 -29 -29 -26 -24 -22 -21 -21 -21 -20 -19 -18 -18 -18 -18 -18 -18 -18 -18 -18 -18 -19 -19 -19
-12 -12 -12 -12 -12 -12 -12 -12 -12 -12 -13 -13 -14 -15 -17 -17 -17 -25 -30 -30 -31 -31 -29 -27 -24 -20 -19 -21 -21 -22 -21 -20 -20 -19 -19 -19 -19 -19 -19 -20 -20 -20 -20 -20
-12 -12 -12 -12 -12 -12 -12 -13 -14 -16 -17 -18 -18 -17 -17 -19 -21 -26 -29 -27 -28 -31 -30 -30 -26 -23 -23 -23 -22 -21 -21 -21 -20 -20 -21 -21 -21 -22 -21 -22 -23 -23 -23 -24
-12 -12 -12 -13 -13 -14 -16 -17 -18 -18 -19 -19 -15 -15 -16 -16 -19 -22 -25 -25 -23 -21 -27 -26 -25 -23 -23 -23 -24 -23 -23 -23 -22 -21 -21 -21 -21 -21 -23 -24 -24 -24 -26 -27
-12 -12 -12 -12 -14 -14 -14 -14 -14 -14 -15 -16 -18 -18 -19 -19 -21 -19 -21 -21 -20 -21 -21 -22 -23 -24 -24 -25 -23 -24 -25 -24 -24 -25 -25 -24 -23 -25 -24 -25 -26 -27 -26 -26
-12 -12 -12 -13 -13 -14 -13 -13 -14 -14 -15 -16 -16 -18 -18 -18 -19 -19 -19 -19 -19 -19 -20 -22 -22 -23 -25 -27 -25 -24 -25 -25 -25 -25 -26 -26 -25 -26 -26 -26 -26 -26 -26 -26
-13 -13 -14 -15 -16 -16 -14 -14 -14 -15 -16 -16 -17 -17 -18 -18 -19 -19 -19 -19 -20 -20 -20 -20 -21 -21 -21 -22 -22 -23 -23 -24 -24 -24 -25 -25 -25 -25 -26 -26 -27 -27 -27 -26

GFSNGP_850_dewp_066.txt.gz
Dewpoint
4 4 2 3 6 6 6 6 8 6 6 7 8 6 6 4 3 3 3 4 3 3 1 -0 0 1 3 4 6 9 10 10 10 9 9 9 8 8 7 6 6 8 9 9
4 2 0 3 5 6 7 7 4 5 6 6 8 7 5 4 3 3 3 3 2 1 -0 -2 -3 -1 0 1 2 5 7 9 10 10 10 9 9 9 9 8 8 7 7 9
4 2 2 5 3 4 4 6 7 9 6 7 6 6 5 3 3 3 3 2 0 -1 -0 -1 -3 -2 -2 0 2 2 4 6 8 9 9 9 10 10 9 9 9 9 8 8
4 3 4 2 -2 -1 5 5 5 5 6 6 5 6 5 2 2 2 1 1 -0 -0 -0 -1 -2 -1 -1 -3 -2 -1 0 2 4 5 6 8 9 9 10 10 10 9 9 9
3 4 1 -2 1 2 4 5 4 4 5 6 3 3 2 2 1 1 1 0 -0 -0 -0 -1 -1 -1 -1 -2 -3 -2 -1 0 1 1 3 4 5 6 7 9 9 10 10 10
3 4 4 2 -0 -1 -1 8 3 2 4 3 2 5 2 1 -0 0 -0 -1 -1 -0 -0 -1 -1 -1 -1 -1 -2 -2 -2 -1 0 1 1 2 3 4 4 5 6 10 10 10
2 3 2 0 -1 -1 3 7 3 2 3 3 3 2 -0 -1 -1 -1 -2 -1 -1 -1 -1 -1 -1 -1 -1 -1 -1 -1 -1 -1 -0 0 1 2 3 3 4 5 5 6 9 10
2 3 2 0 1 2 3 3 2 2 2 1 -0 -1 -1 -1 -1 -1 -1 -2 -2 -2 -2 -2 -2 -2 -2 -2 -2 -2 -2 -2 -2 -1 -0 1 2 3 4 4 6 7 9 9
1 0 3 1 1 2 2 3 2 2 1 -0 -1 -2 -2 -2 -1 -1 -2 -2 -2 -2 -3 -3 -3 -3 -3 -3 -3 -4 -4 -4 -4 -3 -3 -1 -0 1 2 3 4 4 4 4
4 3 2 2 1 -0 -0 -0 -0 -0 -0 -1 -1 -2 -2 -2 -2 -3 -3 -3 -3 -3 -4 -4 -4 -4 -4 -4 -5 -5 -5 -5 -5 -5 -5 -4 -3 -3 -2 -2 -1 -1 -1 -1
5 3 2 2 2 1 -1 -1 -1 -2 -2 -2 -2 -2 -2 -3 -4 -4 -3 -3 -4 -4 -5 -5 -5 -5 -5 -5 -5 -6 -6 -6 -6 -7 -7 -8 -8 -8 -8 -7 -5 -5 -5 -5
3 2 1 1 1 1 1 -1 -2 -2 -3 -3 -2 -2 -3 -3 -4 -5 -5 -6 -6 -6 -6 -6 -6 -6 -6 -6 -6 -6 -6 -7 -7 -8 -8 -8 -9 -9 -9 -9 -8 -8 -8 -7
-1 -1 -0 -1 -1 -1 -2 -3 -3 -3 -4 -4 -4 -5 -5 -6 -7 -7 -7 -7 -7 -7 -7 -7 -7 -7 -7 -7 -7 -7 -7 -7 -7 -8 -8 -8 -9 -9 -9 -9 -9 -9 -9 -9
-0 -0 -2 -2 -3 -3 -3 -4 -4 -5 -5 -5 -6 -6 -7 -8 -8 -9 -8 -8 -8 -8 -8 -8 -8 -7 -7 -7 -7 -7 -7 -7 -7 -8 -8 -8 -8 -8 -8 -8 -9 -9 -9 -9
-4 -3 -4 -4 -4 -5 -5 -5 -6 -7 -7 -8 -8 -8 -9 -9 -9 -9 -9 -9 -8 -8 -8 -8 -8 -8 -8 -8 -8 -8 -8 -8 -8 -8 -8 -8 -8 -8 -9 -9 -10 -10 -10 -10
-4 -5 -5 -5 -6 -6 -6 -7 -8 -9 -10 -10 -10 -10 -10 -10 -10 -10 -10 -9 -9 -9 -9 -9 -9 -9 -9 -9 -9 -9 -9 -9 -9 -9 -10 -10 -10 -10 -10 -10 -10 -11 -11 -12
-5 -5 -6 -7 -7 -8 -8 -8 -9 -10 -10 -11 -12 -11 -11 -11 -11 -10 -10 -10 -10 -10 -10 -10 -10 -10 -10 -9 -9 -10 -10 -10 -10 -10 -11 -11 -12 -12 -12 -13 -13 -14 -15 -16
-8 -7 -7 -8 -9 -10 -10 -10 -10 -10 -11 -11 -11 -11 -11 -11 -11 -11 -11 -11 -11 -11 -11 -12 -14 -15 -14 -13 -12 -12 -12 -12 -12 -13 -13 -13 -14 -14 -15 -15 -17 -18 -19 -20
-9 -9 -10 -10 -11 -11 -11 -11 -11 -11 -12 -12 -11 -11 -12 -12 -12 -12 -12 -12 -12 -16 -21 -23 -23 -21 -21 -19 -19 -18 -17 -16 -15 -15 -15 -16 -17 -18 -19 -20 -21 -21 -22 -23
-10 -10 -11 -11 -11 -12 -12 -12 -12 -12 -12 -12 -12 -12 -12 -13 -14 -18 -24 -28 -31 -29 -24 -23 -24 -24 -22 -20 -19 -19 -19 -20 -20 -18 -18 -19 -19 -19 -19 -20 -21 -22 -22 -23
-11 -12 -12 -12 -12 -12 -12 -12 -12 -12 -13 -13 -13 -15 -18 -20 -23 -25 -28 -30 -29 -26 -24 -24 -24 -24 -24 -23 -22 -21 -20 -20 -20 -20 -20 -20 -20 -20 -20 -20 -21 -21 -22 -22
-12 -12 -12 -12 -12 -12 -13 -13 -12 -13 -13 -14 -17 -18 -19 -19 -22 -27 -32 -32 -30 -27 -25 -26 -25 -24 -23 -23 -23 -24 -24 -23 -22 -22 -22 -22 -22 -21 -21 -22 -23 -22 -22 -23
-12 -12 -12 -12 -12 -13 -13 -14 -16 -17 -18 -18 -17 -17 -18 -20 -23 -28 -27 -27 -30 -27 -26 -27 -27 -24 -23 -24 -26 -25 -24 -25 -25 -26 -25 -24 -24 -23 -22 -22 -23 -23 -24 -25
-12 -12 -12 -13 -15 -16 -18 -18 -18 -17 -18 -19 -18 -17 -17 -18 -20 -25 -25 -23 -21 -24 -27 -26 -24 -24 -25 -26 -25 -25 -26 -26 -26 -26 -27 -27 -26 -26 -26 -25 -26 -27 -27 -26
-12 -12 -13 -13 -14 -14 -14 -14 -15 -15 -15 -16 -17 -19 -19 -19 -20 -20 -20 -20 -21 -20 -20 -21 -22 -23 -24 -24 -25 -25 -24 -23 -23 -24 -25 -26 -26 -25 -26 -26 -27 -27 -27 -27
-12 -12 -12 -13 -13 -14 -14 -14 -15 -15 -15 -16 -16 -18 -19 -19 -19 -19 -19 -19 -20 -20 -20 -21 -21 -21 -22 -22 -22 -23 -23 -23 -24 -24 -24 -24 -25 -25 -26 -26 -26 -27 -27 -27
-14 -14 -14 -15 -16 -15 -14 -14 -14 -15 -16 -16 -16 -18 -19 -19 -19 -19 -19 -20 -20 -20 -20 -21 -21 -21 -21 -21 -22 -22 -22 -23 -23 -23 -23 -24 -24 -25 -25 -25 -26 -26 -27 -27

GFSNGP_850_dewp_069.txt.gz
Dewpoint
3 3 3 4 5 6 8 7 9 5 5 6 7 7 6 6 3 4 3 2 0 -0 1 2 3 4 4 5 8 9 9 9 9 9 10 10 9 9 8 8 8 8 8 8
3 3 1 0 0 4 6 6 7 6 5 6 6 6 6 7 4 4 3 1 -0 -2 -2 -2 -2 -0 1 2 4 6 8 9 9 9 9 9 9 9 9 9 9 9 9 8
3 2 1 3 3 1 5 5 5 8 6 7 7 6 6 6 5 4 2 1 -0 -1 -1 -1 -1 -2 -3 -3 -1 0 2 3 5 7 8 9 9 9 9 9 9 9 9 9
3 2 2 -2 -5 1 3 5 5 6 6 6 5 6 5 5 4 3 2 0 0 0 -1 -1 -1 -2 -2 -3 -4 -4 -4 -3 -1 0 2 4 7 8 8 8 8 8 8 9
1 3 -0 -2 1 2 3 4 4 4 5 5 5 2 2 1 2 2 1 -0 -1 -1 -1 -2 -2 -2 -2 -2 -3 -3 -4 -4 -4 -3 -2 -0 0 2 4 6 7 7 8 8
2 2 2 -2 -0 -1 1 6 4 3 5 5 3 5 2 0 0 -0 -1 -1 -1 -1 -1 -1 -1 -2 -2 -2 -2 -3 -3 -3 -3 -2 -2 -1 -1 -0 1 1 2 4 5 5
2 2 1 -1 2 0 5 6 3 3 6 4 3 2 -1 -1 -1 -1 -1 -1 -1 -2 -2 -2 -2 -3 -3 -3 -3 -3 -3 -3 -3 -3 -3 -2 -1 -0 1 2 3 3 4 4
2 2 2 1 3 2 4 3 2 2 1 -0 -1 -1 -2 -3 -3 -2 -2 -2 -3 -3 -3 -3 -3 -3 -3 -3 -4 -3 -4 -4 -4 -4 -4 -3 -2 -1 1 1 2 2 2 2
1 1 1 0 1 3 3 3 3 2 1 -0 -1 -2 -3 -4 -4 -4 -4 -4 -4 -4 -4 -4 -4 -4 -4 -5 -5 -5 -5 -5 -5 -5 -5 -4 -3 -2 -1 0 0 -1 -1 -2
4 3 2 0 -0 -1 -0 -1 1 2 1 1 -0 -2 -3 -4 -5 -5 -5 -5 -4 -5 -5 -5 -5 -5 -5 -6 -6 -6 -6 -6 -6 -6 -6 -6 -6 -6 -5 -5 -4 -4 -5 -5
4 3 2 2 1 0 -1 -1 -1 -2 -2 -3 -3 -4 -5 -6 -5 -5 -5 -5 -5 -6 -6 -6 -6 -6 -6 -6 -6 -6 -7 -7 -7 -7 -7 -8 -8 -8 -8 -8 -7 -7 -8 -8
3 1 1 -0 -0 -0 -0 -1 -3 -3 -4 -4 -4 -5 -6 -6 -6 -6 -7 -7 -7 -7 -7 -7 -7 -7 -7 -7 -7 -7 -7 -8 -8 -8 -8 -8 -8 -9 -9 -9 -9 -9 -8 -8
-1 -1 -1 -1 -2 -3 -2 -3 -3 -3 -5 -5 -7 -6 -7 -9 -8 -8 -8 -8 -8 -8 -8 -7 -7 -7 -7 -7 -7 -7 -7 -8 -8 -8 -8 -9 -8 -8 -8 -8 -8 -8 -8 -8
-1 -1 -2 -2 -4 -4 -4 -4 -5 -5 -6 -6 -6 -7 -8 -8 -8 -8 -8 -9 -9 -8 -8 -8 -8 -8 -8 -8 -8 -8 -8 -8 -8 -8 -8 -8 -8 -8 -8 -8 -9 -9 -9 -9
-5 -3 -4 -4 -4 -5 -5 -6 -6 -7 -8 -8 -8 -9 -10 -9 -9 -9 -9 -9 -9 -9 -9 -9 -9 -9 -9 -9 -8 -8 -8 -9 -9 -8 -8 -9 -9 -9 -9 -9 -10 -10 -10 -10
-5 -5 -5 -5 -6 -6 -7 -7 -8 -9 -10 -10 -10 -10 -10 -10 -10 -10 -10 -10 -9 -9 -10 -10 -9 -9 -9 -9 -9 -9 -9 -9 -9 -10 -10 -10 -10 -10 -10 -11 -11 -12 -12 -13
-4 -5 -6 -7 -7 -9 -9 -9 -9 -10 -11 -11 -11 -11 -11 -10 -10 -10 -10 -10 -10 -10 -10 -10 -11 -11 -10 -10 -10 -10 -10 -11 -11 -11 -11 -12 -12 -13 -13 -14 -16 -19 -22 -23
-7 -7 -7 -8 -9 -9 -10 -10 -10 -11 -11 -11 -11 -11 -11 -11 -11 -11 -11 -11 -11 -12 -14 -20 -24 -23 -22 -20 -17 -15 -14 -13 -13 -14 -14 -14 -15 -17 -20 -22 -23 -24 -24 -25
-9 -9 -9 -9 -10 -10 -11 -11 -11 -11 -11 -11 -12 -11 -11 -11 -11 -12 -12 -12 -13 -19 -23 -26 -25 -24 -23 -21 -20 -20 -20 -19 -18 -17 -18 -19 -20 -21 -22 -22 -23 -23 -24 -25
-10 -10 -10 -11 -11 -11 -11 -11 -11 -12 -12 -12 -11 -12 -12 -12 -16 -22 -27 -30 -32 -29 -26 -25 -25 -26 -25 -23 -21 -21 -21 -21 -21 -20 -20 -20 -21 -22 -22 -22 -23 -23 -24 -24
-11 -11 -11 -12 -12 -12 -12 -12 -12 -12 -12 -12 -12 -13 -18 -23 -25 -28 -28 -30 -28 -25 -24 -25 -26 -26 -25 -24 -24 -24 -23 -22 -22 -22 -21 -21 -21 -22 -22 -22 -23 -24 -24 -25
-12 -12 -12 -12 -12 -12 -12 -13 -12 -13 -13 -14 -19 -20 -19 -21 -24 -27 -31 -32 -29 -28 -26 -27 -28 -28 -26 -25 -25 -25 -25 -25 -25 -25 -25 -24 -24 -24 -24 -24 -25 -25 -25 -25
-12 -12 -12 -12 -12 -13 -13 -14 -16 -17 -18 -17 -17 -17 -17 -19 -22 -26 -25 -27 -28 -28 -27 -28 -28 -27 -27 -27 -27 -27 -27 -27 -27 -27 -27 -26 -26 -26 -26 -26 -26 -27 -27 -28
-12 -12 -12 -13 -15 -18 -19 -18 -18 -17 -17 -18 -19 -19 -20 -20 -21 -24 -24 -22 -22 -24 -26 -26 -26 -26 -26 -26 -26 -27 -27 -27 -27 -28 -28 -28 -28 -28 -28 -28 -28 -28 -28 -28
-12 -12 -13 -14 -14 -15 -15 -15 -15 -15 -16 -16 -17 -18 -20 -21 -21 -21 -21 -21 -21 -21 -21 -22 -23 -24 -25 -26 -27 -26 -26 -27 -27 -27 -27 -27 -26 -26 -27 -27 -27 -27 -27 -27
-12 -12 -12 -13 -13 -13 -13 -14 -14 -15 -15 -16 -16 -17 -19 -19 -19 -20 -20 -20 -20 -21 -21 -21 -22 -22 -22 -23 -23 -24 -25 -24 -25 -24 -25 -25 -25 -26 -26 -26 -26 -26 -27 -27
-14 -14 -14 -15 -15 -16 -15 -14 -15 -15 -15 -16 -17 -17 -18 -19 -20 -20 -20 -20 -20 -20 -21 -21 -21 -21 -21 -22 -22 -23 -23 -23 -23 -24 -24 -25 -25 -26 -26 -25 -25 -26 -26 -27

GFSNGP_850_dewp_075.txt.gz
Dewpoint
1 1 2 0 -0 -2 -1 4 6 4 4 5 6 6 6 2 0 0 -0 0 1 2 3 5 6 7 8 8 9 10 9 9 9 9 9 9 9 9 9 9 8 8 8 8
1 2 -1 -2 -5 -3 -0 -1 1 4 5 3 3 6 5 3 1 -0 -1 -1 -1 -1 -0 1 3 4 6 8 8 8 8 8 8 8 8 9 9 9 9 9 9 8 8 8
-0 -0 -2 -5 -3 -5 -1 1 3 5 4 5 7 6 5 3 1 0 -1 -1 -2 -1 -2 -2 -2 -1 1 2 4 6 5 7 7 7 7 8 8 8 8 8 8 8 8 8
1 -0 -3 -8 -6 -3 2 3 1 2 4 5 4 3 4 3 2 0 1 -0 -1 -2 -2 -2 -2 -2 -2 -3 -3 -2 -0 0 2 3 5 6 6 7 7 7 7 7 7 7
1 -0 -3 -5 -0 1 3 2 3 4 4 4 3 2 1 1 -1 -2 -2 -2 -1 -1 -1 -2 -2 -2 -2 -2 -3 -3 -3 -3 -3 -3 -3 -2 -1 0 2 3 5 5 6 6
2 1 -1 -5 0 -1 1 -1 2 2 3 4 4 6 2 -0 -1 -1 0 -1 -1 -1 -1 -2 -3 -3 -4 -4 -4 -4 -4 -4 -4 -4 -3 -3 -2 -2 -1 0 0 1 1 1
1 1 -1 -0 0 1 -4 -0 1 1 3 3 4 1 -2 -3 -3 -2 -2 -3 -3 -3 -3 -3 -3 -3 -4 -4 -5 -5 -5 -5 -5 -4 -4 -3 -2 -2 -1 -1 -1 -1 -1 -1
1 1 1 0 1 1 2 2 1 0 -0 -1 -3 -3 -3 -4 -4 -3 -3 -4 -5 -5 -5 -5 -5 -5 -5 -5 -5 -6 -6 -5 -5 -5 -5 -4 -4 -3 -2 -2 -2 -2 -3 -3
0 0 1 -0 0 -0 2 2 0 -1 -2 -2 -3 -4 -3 -5 -4 -4 -3 -5 -5 -6 -6 -6 -5 -6 -6 -6 -5 -6 -6 -6 -6 -6 -6 -6 -6 -6 -6 -6 -6 -7 -6 -6
3 2 1 0 -1 -2 -1 -1 -2 -2 -2 -2 -5 -5 -5 -4 -5 -4 -4 -6 -6 -6 -6 -6 -6 -6 -7 -7 -7 -7 -7 -7 -7 -7 -7 -7 -7 -8 -8 -8 -8 -8 -8 -7
2 1 -0 -2 -3 -3 -4 -3 -3 -3 -3 -3 -3 -5 -5 -4 -5 -4 -4 -6 -6 -7 -7 -7 -7 -7 -7 -7 -7 -7 -8 -8 -8 -8 -8 -8 -8 -8 -8 -8 -8 -8 -8 -8
1 -2 -2 -3 -4 -4 -4 -5 -5 -5 -5 -5 -5 -5 -5 -5 -5 -6 -7 -7 -7 -7 -7 -7 -7 -7 -7 -7 -7 -8 -8 -8 -8 -8 -8 -8 -8 -8 -8 -8 -8 -8 -8 -8
-3 -4 -4 -5 -5 -5 -4 -5 -5 -5 -6 -6 -6 -6 -7 -8 -8 -8 -8 -8 -8 -8 -8 -8 -8 -8 -8 -8 -8 -8 -8 -8 -8 -8 -8 -8 -8 -8 -8 -9 -9 -9 -9 -9
-3 -3 -5 -5 -7 -6 -6 -6 -6 -7 -7 -7 -8 -8 -8 -8 -9 -9 -9 -9 -9 -8 -8 -8 -8 -8 -8 -8 -8 -8 -8 -8 -8 -8 -8 -9 -9 -9 -9 -9 -9 -9 -9 -10
-5 -4 -5 -7 -7 -8 -8 -8 -9 -9 -9 -9 -10 -10 -10 -10 -10 -10 -10 -10 -10 -9 -9 -9 -9 -9 -9 -9 -9 -9 -9 -9 -9 -10 -10 -10 -10 -10 -11 -11 -12 -13 -14 -15
-6 -6 -6 -7 -8 -8 -9 -10 -10 -11 -11 -10 -10 -10 -10 -10 -10 -10 -10 -10 -10 -10 -10 -10 -10 -11 -11 -12 -13 -12 -12 -11 -11 -12 -12 -12 -13 -14 -16 -20 -24 -27 -28 -29
-5 -6 -7 -8 -9 -9 -10 -10 -11 -12 -12 -11 -11 -11 -11 -11 -11 -11 -11 -11 -11 -11 -15 -20 -23 -22 -21 -20 -19 -18 -17 -16 -15 -15 -15 -17 -19 -23 -25 -26 -28 -29 -30 -30
-8 -8 -8 -8 -9 -10 -11 -11 -11 -11 -11 -11 -12 -12 -12 -12 -12 -12 -12 -12 -14 -18 -24 -26 -25 -24 -23 -24 -23 -22 -21 -20 -19 -20 -21 -23 -24 -25 -26 -27 -27 -28 -28 -29
-10 -9 -10 -10 -10 -10 -11 -11 -11 -11 -12 -12 -12 -12 -12 -12 -12 -16 -22 -22 -23 -25 -26 -25 -26 -25 -26 -28 -27 -24 -24 -23 -23 -22 -23 -23 -24 -25 -25 -26 -27 -27 -27 -27
-11 -11 -11 -11 -11 -11 -11 -12 -12 -12 -12 -12 -12 -12 -16 -24 -27 -28 -27 -28 -28 -27 -26 -27 -28 -29 -29 -28 -27 -25 -24 -23 -23 -23 -23 -23 -24 -25 -25 -26 -26 -27 -27 -28
-11 -11 -11 -11 -12 -12 -12 -12 -12 -12 -13 -16 -20 -22 -24 -26 -28 -29 -29 -28 -27 -27 -28 -28 -29 -29 -28 -27 -26 -26 -25 -24 -24 -24 -24 -25 -25 -25 -25 -26 -26 -27 -27 -27
-12 -12 -12 -12 -12 -12 -13 -13 -14 -18 -19 -19 -20 -21 -22 -23 -24 -26 -28 -28 -27 -29 -28 -28 -28 -30 -29 -27 -26 -26 -26 -26 -27 -27 -27 -27 -27 -27 -27 -27 -27 -28 -28 -28
-12 -12 -12 -12 -12 -13 -16 -18 -19 -19 -20 -20 -21 -22 -23 -23 -23 -24 -24 -24 -24 -24 -25 -25 -26 -27 -27 -26 -26 -26 -27 -27 -27 -27 -27 -27 -27 -27 -27 -27 -27 -28 -28 -28
-12 -12 -12 -15 -18 -18 -18 -18 -17 -17 -18 -18 -18 -18 -21 -23 -23 -23 -22 -22 -21 -22 -22 -23 -23 -23 -25 -26 -26 -26 -26 -26 -27 -27 -26 -26 -26 -26 -26 -27 -27 -27 -27 -27
-13 -14 -15 -15 -15 -15 -15 -16 -16 -16 -16 -16 -17 -17 -18 -20 -23 -22 -21 -22 -22 -22 -23 -23 -22 -22 -23 -23 -24 -24 -25 -25 -25 -25 -25 -25 -25 -26 -26 -26 -27 -27 -27 -27
-13 -13 -13 -14 -14 -14 -15 -14 -14 -15 -15 -16 -16 -17 -18 -20 -21 -21 -21 -21 -21 -21 -21 -22 -22 -22 -22 -23 -23 -23 -24 -25 -25 -25 -25 -26 -26 -26 -27 -28 -28 -28 -28 -28
-13 -13 -14 -15 -15 -16 -17 -17 -15 -15 -16 -16 -17 -17 -19 -20 -21 -21 -21 -21 -21 -21 -21 -21 -21 -21 -21 -22 -22 -23 -24 -26 -26 -27 -27 -27 -27 -27 -27 -27 -27 -27 -27 -27

GFSNGP_850_dewp_081.txt.gz
Dewpoint
-0 -3 -1 3 5 0 2 1 1 -2 -4 -4 -0 4 4 2 2 1 0 0 -1 -1 0 2 4 7 8 8 9 9 9 8 8 8 8 8 8 8 9 9 9 9 8 8
2 1 -0 1 2 -4 -5 -7 -6 -5 -4 -0 3 4 3 2 2 1 -0 -1 -1 -2 -1 -1 1 3 5 6 7 8 8 8 8 8 8 8 8 8 8 7 8 8 9 9
1 2 0 2 -1 -4 -7 -6 -5 0 2 3 5 5 3 2 1 0 -1 -2 -1 -3 -3 -2 -2 -0 2 3 3 5 6 6 6 7 7 7 8 8 8 8 8 8 8 8
3 1 3 -4 -8 -8 -7 -5 -2 -1 3 3 3 1 0 1 0 -1 -2 -2 -2 -1 -3 -3 -3 -3 -1 0 1 1 2 3 3 5 5 4 5 7 6 6 6 6 7 7
5 -1 -4 -7 -4 -3 -2 4 0 0 -0 3 1 0 -2 -2 -2 -2 -2 -3 -3 -1 -3 -4 -4 -4 -3 -2 -2 -2 -1 -2 -1 1 3 3 2 5 4 4 4 4 4 4
3 1 -1 1 -3 -3 -5 2 0 0 1 1 2 5 -0 -4 -4 -4 -4 -4 -4 -3 -2 -2 -3 -4 -3 -3 -4 -3 -3 -3 -3 -2 -2 -1 -1 0 1 1 1 2 2 2
4 -2 -1 -1 -3 -4 -2 5 1 0 -0 -1 0 -2 -4 -4 -4 -4 -4 -4 -4 -5 -5 -3 -3 -2 -1 -2 -3 -4 -4 -4 -4 -3 -2 -2 -2 -1 -2 -2 -1 -1 -2 -4
-1 -0 1 -0 -1 2 2 2 1 -1 -2 -3 -4 -5 -5 -5 -5 -5 -5 -5 -5 -5 -5 -5 -5 -4 -3 -3 -3 -2 -3 -3 -3 -3 -3 -3 -3 -3 -3 -4 -5 -6 -6 -6
3 4 1 -1 -0 -0 1 1 0 -1 -3 -4 -4 -5 -6 -6 -6 -6 -5 -5 -5 -6 -6 -6 -6 -6 -6 -6 -6 -5 -4 -3 -2 -3 -3 -4 -4 -6 -6 -6 -6 -6 -6 -7
3 0 -1 -1 -1 -2 -2 -2 -3 -3 -3 -4 -5 -6 -6 -7 -7 -7 -7 -6 -7 -7 -7 -7 -7 -7 -7 -7 -6 -7 -7 -7 -7 -7 -7 -7 -6 -6 -6 -7 -7 -7 -7 -7
1 -1 -2 -2 -2 -2 -3 -4 -4 -4 -4 -5 -6 -6 -7 -7 -8 -8 -8 -7 -7 -7 -7 -7 -7 -7 -7 -7 -7 -7 -7 -8 -8 -8 -8 -8 -8 -8 -8 -8 -8 -8 -8 -8
1 -1 -2 -3 -4 -4 -3 -3 -4 -4 -5 -6 -6 -6 -7 -8 -8 -9 -9 -9 -8 -9 -9 -9 -8 -8 -8 -7 -7 -7 -8 -8 -8 -8 -8 -8 -9 -9 -9 -9 -9 -9 -9 -9
-2 -3 -4 -4 -4 -4 -5 -5 -5 -6 -6 -6 -7 -8 -8 -9 -9 -9 -9 -9 -8 -8 -8 -8 -8 -8 -8 -8 -8 -8 -8 -8 -8 -8 -9 -9 -9 -9 -9 -10 -10 -10 -10 -10
-3 -3 -3 -3 -4 -5 -5 -6 -7 -7 -7 -7 -7 -8 -8 -9 -9 -10 -9 -9 -8 -8 -8 -9 -8 -8 -9 -9 -9 -9 -9 -8 -8 -9 -9 -9 -9 -9 -10 -10 -11 -15 -20 -23
-4 -4 -4 -5 -5 -7 -7 -7 -8 -8 -8 -8 -8 -8 -9 -9 -10 -10 -10 -10 -9 -9 -9 -9 -9 -9 -10 -10 -10 -10 -10 -11 -11 -11 -11 -11 -11 -12 -12 -12 -12 -12 -13 -14
-5 -4 -6 -6 -7 -8 -8 -8 -8 -9 -9 -9 -9 -10 -10 -11 -12 -11 -11 -11 -11 -11 -11 -12 -13 -14 -16 -15 -12 -12 -15 -16 -12 -11 -11 -11 -12 -12 -12 -12 -13 -16 -25 -26
-4 -6 -6 -7 -7 -8 -8 -9 -9 -9 -9 -10 -10 -10 -11 -12 -12 -11 -11 -12 -14 -16 -18 -21 -22 -22 -22 -21 -12 -11 -12 -13 -13 -12 -12 -12 -12 -13 -13 -13 -14 -16 -31 -32
-6 -6 -6 -7 -8 -8 -9 -9 -9 -10 -11 -12 -12 -11 -12 -12 -12 -12 -13 -16 -21 -25 -26 -27 -26 -26 -26 -26 -16 -12 -12 -12 -13 -13 -13 -13 -14 -14 -14 -14 -14 -15 -16 -21
-8 -8 -8 -8 -9 -9 -10 -11 -12 -12 -12 -12 -12 -11 -12 -12 -13 -16 -21 -18 -14 -15 -24 -28 -29 -27 -28 -28 -16 -13 -13 -13 -13 -14 -14 -14 -14 -14 -14 -15 -15 -16 -16 -17
-10 -10 -10 -11 -11 -11 -13 -12 -12 -12 -12 -12 -12 -12 -14 -20 -25 -27 -26 -25 -27 -25 -28 -29 -19 -22 -24 -27 -19 -14 -14 -14 -14 -15 -15 -15 -15 -15 -16 -19 -17 -17 -17 -17
-11 -12 -12 -12 -12 -12 -12 -12 -12 -12 -12 -14 -19 -24 -27 -28 -29 -28 -14 -14 -19 -28 -29 -25 -29 -23 -24 -26 -16 -15 -15 -15 -15 -16 -16 -16 -16 -16 -17 -17 -17 -18 -18 -18
-12 -13 -12 -12 -12 -12 -12 -12 -14 -19 -22 -23 -24 -24 -24 -22 -23 -23 -25 -18 -17 -29 -21 -18 -28 -31 -32 -24 -17 -17 -17 -17 -17 -17 -17 -17 -17 -17 -18 -18 -18 -19 -19 -19
-12 -12 -12 -12 -12 -13 -18 -21 -21 -22 -22 -22 -22 -21 -16 -16 -15 -15 -15 -17 -17 -22 -17 -19 -28 -29 -29 -20 -18 -18 -18 -18 -18 -18 -18 -18 -18 -19 -19 -19 -20 -19 -20 -20
-12 -12 -12 -16 -19 -16 -14 -18 -16 -18 -18 -18 -19 -20 -17 -15 -15 -17 -20 -24 -24 -23 -23 -25 -27 -27 -27 -19 -19 -19 -19 -19 -19 -19 -19 -20 -19 -20 -20 -20 -20 -20 -21 -21
-12 -14 -15 -13 -12 -12 -12 -13 -14 -14 -15 -15 -15 -16 -17 -16 -16 -16 -17 -18 -21 -21 -18 -20 -23 -25 -20 -19 -19 -20 -20 -20 -20 -20 -20 -20 -20 -20 -20 -21 -21 -21 -22 -22
-11 -11 -11 -12 -11 -13 -13 -14 -14 -13 -14 -14 -15 -15 -16 -17 -17 -17 -18 -19 -18 -18 -18 -18 -19 -19 -19 -19 -19 -20 -20 -20 -20 -20 -21 -21 -21 -21 -21 -21 -22 -22 -22 -22
-11 -12 -12 -13 -13 -14 -13 -14 -13 -13 -13 -14 -14 -15 -16 -16 -17 -18 -17 -17 -18 -18 -18 -18 -19 -19 -20 -20 -20 -20 -20 -20 -20 -21 -21 -21 -21 -21 -21 -21 -22 -22 -22 -23

GFSNGP_850_dewp_087.txt.gz
Dewpoint
-3 -5 -5 -4 1 -1 2 5 7 6 5 7 5 4 3 1 0 -0 -1 -2 -2 -1 0 2 3 4 6 7 9 9 10 9 9 9 9 9 9 9 8 7 7 8 8 9
-2 -3 -2 -4 -5 -4 -1 4 5 5 6 5 4 3 1 1 0 -0 -2 -2 -3 -2 -1 0 1 1 3 4 6 7 9 9 9 8 8 7 8 8 7 7 7 8 8 8
-2 -3 -1 0 -1 -2 1 3 3 5 6 3 2 1 1 0 -1 -2 -3 -3 -3 -3 -3 -1 -0 0 1 2 3 4 5 7 8 8 8 8 8 8 9 9 8 8 8 8
0 -0 2 -4 -3 -1 4 4 4 4 3 2 0 -2 -3 -2 -3 -3 -3 -3 -3 -3 -3 -2 -1 -0 0 0 1 2 2 3 4 6 7 7 7 7 7 7 7 7 7 7
1 2 0 -1 3 3 3 5 0 1 0 1 -0 -2 -3 -4 -4 -4 -4 -3 -3 -3 -3 -3 -2 -2 0 0 0 0 0 0 -0 1 1 3 4 4 4 4 4 4 4 4
2 2 2 4 2 -0 1 5 -0 -1 -1 -1 0 2 -3 -4 -4 -4 -4 -4 -4 -4 -4 -3 -3 -2 -1 0 0 -0 -0 -0 -0 0 -0 -0 -0 0 0 0 1 1 1 2
1 1 2 1 -0 -1 3 3 -1 -2 -3 -3 -3 -4 -5 -5 -5 -5 -5 -5 -4 -4 -5 -5 -4 -3 -2 -3 -3 -2 -2 -1 -1 -1 -1 -0 -2 -0 -0 -1 -2 -1 -1 -1
1 2 3 -1 -1 1 1 -1 -2 -3 -4 -4 -5 -5 -5 -5 -5 -5 -5 -5 -5 -5 -5 -5 -5 -5 -4 -4 -4 -4 -3 -2 -2 -3 -2 -3 -2 -3 -2 -2 -2 -5 -5 -4
1 1 -0 -1 -2 -2 -1 -1 -2 -3 -4 -5 -5 -6 -6 -5 -5 -5 -5 -6 -6 -6 -6 -6 -6 -6 -6 -5 -4 -4 -4 -4 -4 -4 -4 -4 -4 -3 -4 -3 -4 -3 -5 -5
1 -1 -2 -2 -3 -3 -3 -3 -4 -4 -5 -6 -6 -6 -6 -6 -6 -6 -6 -6 -7 -7 -6 -6 -6 -6 -7 -7 -7 -6 -5 -5 -5 -4 -4 -5 -5 -5 -5 -5 -5 -5 -6 -6
1 -1 -2 -3 -3 -3 -4 -4 -4 -5 -5 -6 -6 -7 -7 -7 -7 -7 -7 -7 -7 -7 -7 -7 -7 -7 -7 -7 -7 -8 -8 -8 -7 -6 -6 -6 -6 -6 -6 -6 -6 -5 -5 -6
-1 -2 -3 -3 -4 -4 -4 -4 -5 -6 -6 -6 -7 -7 -7 -8 -8 -8 -8 -8 -8 -8 -8 -8 -7 -7 -7 -7 -7 -7 -7 -8 -8 -9 -9 -9 -8 -8 -9 -8 -8 -8 -8 -8
-3 -4 -4 -4 -4 -4 -5 -5 -6 -6 -7 -8 -8 -8 -8 -9 -9 -9 -9 -9 -9 -9 -9 -8 -8 -7 -7 -7 -7 -8 -8 -8 -8 -8 -8 -9 -10 -11 -11 -12 -11 -10 -10 -9
-3 -3 -4 -4 -4 -5 -5 -6 -7 -7 -7 -7 -8 -9 -9 -10 -10 -10 -10 -10 -9 -9 -9 -9 -8 -8 -9 -8 -8 -8 -8 -8 -8 -8 -9 -9 -10 -11 -13 -17 -22 -25 -25 -17
-4 -4 -4 -4 -5 -5 -6 -7 -8 -8 -8 -8 -8 -9 -10 -10 -10 -11 -11 -10 -9 -9 -10 -9 -9 -10 -10 -11 -11 -10 -11 -12 -12 -11 -12 -12 -12 -13 -14 -16 -19 -21 -22 -24
-3 -4 -5 -6 -7 -7 -7 -8 -8 -9 -9 -9 -10 -10 -11 -10 -11 -11 -11 -10 -10 -11 -14 -15 -13 -12 -10 -11 -12 -14 -12 -11 -11 -11 -12 -12 -12 -14 -15 -17 -20 -24 -21 -18
-3 -4 -4 -7 -8 -8 -8 -8 -9 -9 -10 -10 -11 -11 -11 -11 -11 -11 -12 -15 -17 -19 -21 -23 -22 -14 -11 -11 -11 -11 -12 -12 -13 -12 -13 -13 -14 -15 -17 -18 -21 -30 -23 -18
-6 -6 -6 -7 -8 -9 -9 -9 -10 -10 -11 -11 -11 -11 -11 -11 -11 -14 -16 -16 -19 -26 -28 -28 -26 -22 -15 -14 -13 -12 -13 -14 -14 -14 -13 -13 -14 -14 -14 -15 -16 -18 -21 -21
-8 -8 -8 -8 -8 -9 -10 -11 -11 -11 -11 -11 -11 -11 -12 -14 -18 -19 -17 -17 -24 -26 -27 -27 -30 -27 -20 -14 -14 -13 -13 -13 -13 -15 -14 -14 -14 -14 -15 -15 -15 -16 -16 -17
-9 -9 -9 -10 -10 -11 -11 -12 -12 -12 -12 -12 -13 -18 -24 -27 -26 -19 -15 -14 -17 -28 -30 -26 -24 -25 -23 -17 -16 -15 -14 -15 -15 -16 -14 -14 -15 -16 -16 -16 -16 -16 -17 -17
-11 -11 -11 -11 -11 -12 -12 -12 -12 -14 -19 -25 -26 -25 -23 -23 -24 -14 -14 -14 -18 -23 -25 -23 -23 -27 -23 -19 -18 -17 -15 -15 -15 -15 -15 -16 -15 -16 -16 -16 -17 -17 -17 -18
-11 -12 -12 -12 -12 -12 -13 -16 -22 -24 -24 -25 -24 -17 -14 -14 -14 -14 -14 -15 -16 -21 -23 -21 -23 -29 -23 -20 -20 -18 -17 -16 -16 -16 -16 -16 -16 -17 -17 -17 -17 -18 -18 -18
-12 -12 -12 -13 -16 -20 -21 -21 -21 -21 -20 -20 -20 -20 -17 -15 -15 -16 -16 -17 -17 -18 -23 -22 -25 -28 -26 -23 -19 -18 -18 -18 -18 -17 -17 -17 -18 -17 -18 -18 -18 -18 -18 -19
-12 -12 -17 -16 -13 -13 -14 -16 -17 -16 -16 -17 -17 -17 -19 -18 -15 -15 -16 -16 -18 -20 -21 -18 -19 -22 -22 -19 -19 -19 -18 -19 -19 -19 -19 -19 -19 -19 -19 -20 -20 -20 -20 -20
-13 -16 -12 -11 -11 -12 -12 -14 -14 -13 -13 -14 -14 -14 -14 -15 -16 -18 -18 -18 -18 -19 -19 -19 -18 -18 -19 -19 -19 -19 -19 -19 -19 -19 -20 -20 -19 -20 -20 -20 -20 -20 -21 -21
-12 -11 -11 -11 -11 -11 -12 -12 -12 -12 -12 -12 -13 -13 -13 -14 -15 -17 -18 -18 -18 -18 -17 -18 -18 -18 -18 -19 -19 -19 -19 -19 -20 -20 -20 -20 -20 -20 -20 -20 -21 -21 -21 -21
-10 -11 -12 -12 -13 -14 -14 -15 -13 -13 -13 -13 -13 -14 -14 -15 -15 -16 -17 -17 -17 -17 -18 -18 -18 -18 -19 -18 -19 -20 -20 -20 -20 -20 -20 -20 -20 -20 -21 -21 -21 -21 -21 -21

GFSNGP_850_dewp_090.txt.gz
Dewpoint
-2 -2 -3 -2 -2 -4 -3 -1 4 5 6 6 5 3 2 0 -0 -1 -1 -3 -3 -2 -2 -0 1 2 4 6 8 9 10 10 10 10 9 10 9 9 8 9 8 7 7 8
-6 -5 -4 -3 -2 -3 -4 -4 -2 1 5 2 3 2 1 0 -0 -1 -2 -3 -3 -3 -2 -1 -0 0 2 3 5 7 8 9 9 10 9 8 8 8 8 8 7 7 8 9
-4 -4 -2 -1 -1 -3 -5 -1 3 5 5 3 1 -0 -1 -1 -2 -3 -3 -3 -3 -3 -3 -2 -2 -0 1 1 3 4 5 6 8 9 9 9 9 9 8 8 8 8 8 8
-0 -1 1 -1 1 1 4 4 4 3 3 1 -1 -2 -3 -4 -4 -4 -4 -4 -3 -3 -3 -3 -2 -1 -0 0 1 2 2 3 4 6 7 7 8 8 8 8 8 7 7 8
0 1 -2 -3 3 2 2 3 1 2 1 -0 -2 -3 -4 -4 -4 -4 -4 -4 -4 -4 -3 -2 -2 -2 -1 -1 0 1 1 1 1 1 1 2 4 4 4 5 5 6 6 6
1 2 1 2 -1 -0 1 3 1 -1 -2 -1 -1 2 -4 -5 -5 -4 -4 -4 -4 -4 -4 -3 -3 -2 -2 -2 -1 -1 -1 -0 0 0 0 1 -0 -0 1 2 2 1 3 2
1 1 1 -0 -0 -0 3 2 -2 -4 -4 -3 -4 -4 -5 -5 -5 -5 -5 -5 -5 -5 -5 -5 -4 -3 -3 -3 -3 -3 -3 -2 -1 -0 -0 0 -0 -1 -0 -1 -0 -1 -1 -1
2 2 2 -2 -2 0 -0 -2 -3 -4 -4 -5 -5 -5 -5 -5 -5 -5 -6 -6 -6 -6 -6 -6 -5 -5 -5 -5 -4 -4 -3 -3 -2 -2 -1 -2 -1 -2 -2 -1 -2 -2 -1 -1
0 -0 -1 -2 -2 -2 -2 -2 -3 -4 -5 -5 -6 -6 -5 -5 -6 -6 -6 -6 -6 -6 -6 -7 -7 -6 -6 -6 -5 -5 -4 -4 -4 -4 -4 -4 -3 -4 -4 -4 -4 -4 -4 -4
-0 -2 -2 -2 -3 -4 -4 -4 -5 -5 -6 -6 -6 -6 -6 -6 -6 -6 -7 -7 -6 -7 -7 -7 -7 -7 -7 -7 -6 -5 -5 -5 -5 -4 -5 -5 -4 -5 -5 -5 -5 -5 -4 -5
-1 -2 -3 -4 -4 -4 -5 -5 -5 -5 -6 -7 -7 -7 -7 -7 -7 -7 -7 -7 -7 -7 -7 -7 -7 -7 -7 -7 -7 -7 -7 -6 -6 -6 -5 -5 -5 -5 -5 -6 -5 -5 -5 -5
-3 -3 -3 -4 -4 -4 -4 -5 -6 -6 -7 -7 -7 -8 -8 -8 -8 -8 -8 -8 -8 -8 -7 -7 -7 -7 -7 -7 -7 -7 -8 -8 -8 -8 -8 -7 -7 -7 -7 -7 -7 -7 -7 -7
-3 -4 -4 -4 -5 -5 -6 -6 -7 -7 -7 -8 -8 -8 -9 -9 -9 -9 -9 -8 -8 -8 -8 -8 -8 -8 -8 -8 -8 -8 -8 -8 -8 -9 -10 -10 -11 -10 -9 -9 -8 -8 -9 -9
-3 -4 -4 -4 -5 -6 -6 -7 -7 -7 -8 -9 -9 -9 -9 -10 -10 -10 -9 -9 -9 -9 -9 -9 -9 -9 -9 -9 -8 -8 -8 -8 -8 -9 -9 -10 -11 -14 -18 -19 -14 -11 -10 -10
-4 -4 -5 -5 -5 -6 -7 -8 -8 -8 -8 -9 -9 -10 -10 -10 -10 -10 -10 -10 -10 -9 -10 -10 -10 -10 -12 -12 -10 -10 -10 -11 -12 -12 -12 -13 -14 -15 -16 -18 -22 -25 -26 -23
-3 -4 -5 -6 -5 -6 -7 -8 -9 -9 -10 -10 -10 -10 -10 -10 -10 -10 -10 -10 -10 -12 -13 -12 -12 -12 -12 -12 -14 -13 -12 -12 -12 -13 -13 -14 -14 -15 -16 -18 -19 -20 -19 -19
-4 -5 -6 -6 -7 -7 -8 -8 -9 -10 -10 -11 -11 -11 -11 -11 -11 -12 -14 -17 -20 -20 -21 -20 -13 -11 -11 -12 -13 -13 -13 -13 -13 -12 -13 -13 -13 -15 -16 -19 -27 -25 -19 -19
-5 -5 -5 -6 -8 -8 -9 -9 -10 -10 -11 -11 -11 -11 -11 -11 -11 -12 -15 -19 -22 -26 -27 -26 -21 -14 -12 -13 -13 -13 -14 -14 -14 -13 -13 -14 -15 -15 -16 -16 -18 -21 -22 -21
-7 -7 -7 -8 -8 -9 -10 -10 -11 -11 -11 -11 -11 -11 -12 -15 -19 -22 -23 -22 -24 -28 -26 -25 -25 -19 -16 -14 -14 -14 -13 -14 -14 -16 -14 -15 -15 -14 -15 -15 -16 -17 -17 -18
-9 -9 -9 -9 -10 -11 -11 -11 -11 -11 -12 -12 -13 -18 -25 -28 -23 -17 -15 -14 -18 -25 -27 -25 -25 -23 -20 -16 -14 -15 -14 -14 -14 -15 -14 -14 -14 -16 -16 -16 -16 -16 -17 -17
-10 -10 -10 -11 -11 -12 -12 -12 -12 -14 -19 -25 -27 -27 -26 -26 -25 -20 -18 -18 -19 -18 -24 -23 -23 -27 -26 -20 -17 -17 -16 -15 -15 -15 -15 -15 -16 -16 -16 -16 -17 -17 -17 -18
-11 -11 -11 -12 -12 -12 -13 -19 -24 -25 -25 -25 -23 -18 -17 -17 -18 -18 -16 -16 -18 -19 -20 -24 -26 -28 -28 -22 -20 -21 -18 -16 -16 -16 -16 -16 -17 -17 -17 -17 -17 -18 -18 -18
-12 -12 -12 -13 -17 -20 -21 -21 -21 -20 -20 -19 -20 -20 -19 -17 -17 -16 -16 -17 -18 -20 -22 -24 -22 -26 -27 -24 -23 -22 -20 -19 -18 -17 -17 -17 -17 -18 -18 -18 -18 -19 -19 -19
-12 -15 -18 -15 -14 -15 -16 -17 -16 -14 -15 -16 -15 -15 -16 -16 -16 -17 -18 -17 -19 -20 -20 -19 -19 -21 -23 -22 -21 -20 -20 -19 -19 -19 -19 -19 -19 -19 -19 -19 -20 -20 -20 -20
-15 -16 -13 -12 -12 -12 -13 -13 -13 -13 -12 -13 -13 -14 -14 -14 -14 -16 -18 -18 -18 -18 -18 -19 -19 -18 -19 -19 -19 -20 -19 -19 -19 -20 -20 -20 -20 -20 -20 -20 -20 -20 -21 -21
-14 -12 -12 -11 -11 -12 -12 -12 -13 -12 -12 -13 -13 -13 -14 -14 -14 -15 -17 -17 -18 -18 -18 -18 -18 -19 -19 -19 -19 -19 -20 -20 -20 -20 -20 -20 -20 -20 -20 -21 -21 -21 -21 -21
-11 -12 -13 -12 -13 -13 -13 -14 -15 -14 -14 -14 -14 -14 -14 -14 -15 -16 -16 -16 -17 -17 -17 -17 -17 -18 -18 -18 -18 -19 -19 -20 -20 -20 -20 -20 -20 -21 -21 -21 -21 -21 -21 -22